Time,TemperatureF,DewpointF,PressureIn,WindDirection,WindDirectionDegrees,WindSpeedMPH,WindSpeedGustMPH,Humidity,HourlyPrecipIn,Conditions,Clouds,dailyrainin,SoftwareType,DateUTC
2013-04-11 00:00:00,65.5,54.7,30.15,South,190,0.0,6.3,68,-99.99,,CLR,-99.99,VWS V14.01,2013-04-11 04:00:00,
2013-04-11 00:01:00,65.5,54.7,30.15,SSE,156,4.0,5.8,68,-99.99,,CLR,-99.99,VWS V14.01,2013-04-11 04:01:00,
2013-04-11 00:05:00,65.3,54.5,30.15,SSW,207,7.8,7.8,68,-99.99,,CLR,-99.99,VWS V14.01,2013-04-11 04:05:00,
2013-04-11 00:06:00,65.3,54.9,30.15,SSE,163,4.9,8.3,69,-99.99,,CLR,-99.99,VWS V14.01,2013-04-11 04:06:00,
2013-04-11 00:10:00,65.3,54.9,30.15,South,176,0.0,0.0,69,-99.99,,CLR,-99.99,VWS V14.01,2013-04-11 04:10:00,
2013-04-11 00:11:00,65.3,54.9,30.15,South,175,0.0,0.0,69,-99.99,,CLR,-99.99,VWS V14.01,2013-04-11 04:11:00,
2013-04-11 00:12:00,65.3,54.9,30.15,SSE,167,0.0,0.0,69,-99.99,,CLR,-99.99,VWS V14.01,2013-04-11 04:12:00,
2013-04-11 00:15:00,65.1,54.7,30.15,South,171,0.0,0.0,69,-99.99,,CLR,-99.99,VWS V14.01,2013-04-11 04:15:00,
2013-04-11 00:16:00,65.1,54.7,30.15,South,180,0.0,0.0,69,-99.99,,CLR,-99.99,VWS V14.01,2013-04-11 04:16:00,
2013-04-11 00:17:00,65.1,54.7,30.15,SSW,207,0.0,0.0,69,-99.99,,CLR,-99.99,VWS V14.01,2013-04-11 04:17:00,
2013-04-11 00:21:00,64.9,54.9,30.15,South,173,0.0,0.0,70,-99.99,,CLR,-99.99,VWS V14.01,2013-04-11 04:21:00,
2013-04-11 00:22:00,64.9,54.9,30.15,South,171,0.0,0.0,70,-99.99,,CLR,-99.99,VWS V14.01,2013-04-11 04:22:00,
2013-04-11 00:23:00,64.9,54.9,30.15,SSE,161,0.0,0.0,70,-99.99,,CLR,-99.99,VWS V14.01,2013-04-11 04:23:00,
2013-04-11 00:27:00,64.8,55.2,30.15,SSW,192,0.0,0.0,71,-99.99,,CLR,-99.99,VWS V14.01,2013-04-11 04:27:00,
2013-04-11 00:28:00,64.8,55.2,30.15,South,190,0.0,0.0,71,-99.99,,CLR,-99.99,VWS V14.01,2013-04-11 04:28:00,
2013-04-11 00:32:00,64.6,55.0,30.15,SSW,211,0.0,0.0,71,-99.99,,CLR,-99.99,VWS V14.01,2013-04-11 04:32:00,
2013-04-11 00:33:00,64.6,55.0,30.15,SSE,167,0.0,0.0,71,-99.99,,CLR,-99.99,VWS V14.01,2013-04-11 04:33:00,
2013-04-11 00:34:00,64.6,55.4,30.15,SSE,163,0.0,0.0,72,-99.99,,CLR,-99.99,VWS V14.01,2013-04-11 04:34:00,
2013-04-11 00:37:00,64.6,55.4,30.15,SSE,167,0.0,0.0,72,-99.99,,CLR,-99.99,VWS V14.01,2013-04-11 04:37:00,
2013-04-11 00:38:00,64.6,55.4,30.15,SSW,192,0.0,0.0,72,-99.99,,CLR,-99.99,VWS V14.01,2013-04-11 04:38:00,
2013-04-11 00:40:00,64.4,55.2,30.15,SSW,203,0.0,0.0,72,-99.99,,CLR,-99.99,VWS V14.01,2013-04-11 04:40:00,
2013-04-11 00:42:00,64.4,55.2,30.15,SSW,192,0.0,0.0,72,-99.99,,CLR,-99.99,VWS V14.01,2013-04-11 04:42:00,
2013-04-11 00:44:00,64.2,55.0,30.15,SSE,161,0.0,0.0,72,-99.99,,CLR,-99.99,VWS V14.01,2013-04-11 04:44:00,
2013-04-11 00:45:00,64.2,55.0,30.15,South,179,0.0,0.0,72,-99.99,,CLR,-99.99,VWS V14.01,2013-04-11 04:45:00,
2013-04-11 00:49:00,64.0,55.2,30.15,SSW,196,0.0,0.0,73,-99.99,,CLR,-99.99,VWS V14.01,2013-04-11 04:49:00,
2013-04-11 00:50:00,64.0,55.6,30.15,ESE,109,0.0,0.0,74,-99.99,,CLR,-99.99,VWS V14.01,2013-04-11 04:50:00,
2013-04-11 00:54:00,63.9,55.4,30.15,SSE,167,0.0,0.0,74,-99.99,,CLR,-99.99,VWS V14.01,2013-04-11 04:54:00,
2013-04-11 00:55:00,63.9,55.4,30.15,South,170,0.0,0.0,74,-99.99,,CLR,-99.99,VWS V14.01,2013-04-11 04:55:00,
2013-04-11 00:56:00,63.9,55.4,30.15,South,172,0.0,0.0,74,-99.99,,CLR,-99.99,VWS V14.01,2013-04-11 04:56:00,
2013-04-11 01:01:00,63.5,55.4,30.15,SSE,150,0.0,0.0,75,-99.99,,CLR,-99.99,VWS V14.01,2013-04-11 05:01:00,
2013-04-11 01:02:00,63.5,55.4,30.15,SSE,165,0.0,0.0,75,-99.99,,CLR,-99.99,VWS V14.01,2013-04-11 05:02:00,
2013-04-11 01:06:00,63.5,56.2,30.15,South,182,2.7,7.4,77,-99.99,,CLR,-99.99,VWS V14.01,2013-04-11 05:06:00,
2013-04-11 01:07:00,63.5,56.2,30.15,SSE,149,2.7,6.7,77,-99.99,,CLR,-99.99,VWS V14.01,2013-04-11 05:07:00,
2013-04-11 01:09:00,63.5,56.5,30.15,SSW,202,2.7,7.8,78,-99.99,,CLR,-99.99,VWS V14.01,2013-04-11 05:09:00,
2013-04-11 01:12:00,63.5,56.5,30.15,South,169,0.0,3.1,78,-99.99,,CLR,-99.99,VWS V14.01,2013-04-11 05:12:00,
2013-04-11 01:16:00,63.1,56.2,30.15,South,183,0.0,0.0,78,-99.99,,CLR,-99.99,VWS V14.01,2013-04-11 05:16:00,
2013-04-11 01:17:00,63.1,56.2,30.15,South,172,0.0,0.0,78,-99.99,,CLR,-99.99,VWS V14.01,2013-04-11 05:17:00,
2013-04-11 01:18:00,63.1,56.2,30.15,South,177,0.0,0.0,78,-99.99,,CLR,-99.99,VWS V14.01,2013-04-11 05:18:00,
2013-04-11 01:19:00,63.1,56.2,30.15,South,169,0.0,0.0,78,-99.99,,CLR,-99.99,VWS V14.01,2013-04-11 05:19:00,
2013-04-11 01:21:00,63.0,56.0,30.15,SW,218,0.0,0.0,78,-99.99,,CLR,-99.99,VWS V14.01,2013-04-11 05:21:00,
2013-04-11 01:22:00,63.0,56.3,30.15,SSE,154,0.0,0.0,79,-99.99,,CLR,-99.99,VWS V14.01,2013-04-11 05:22:00,
2013-04-11 01:23:00,63.0,56.3,30.15,SSE,160,0.0,0.0,79,-99.99,,CLR,-99.99,VWS V14.01,2013-04-11 05:23:00,
2013-04-11 01:24:00,63.0,56.3,30.15,South,184,0.0,0.0,79,-99.99,,CLR,-99.99,VWS V14.01,2013-04-11 05:24:00,
2013-04-11 01:26:00,62.8,56.2,30.15,South,191,0.0,0.0,79,-99.99,,CLR,-99.99,VWS V14.01,2013-04-11 05:26:00,
2013-04-11 01:28:00,62.8,56.5,30.15,SSE,151,0.0,0.0,80,-99.99,,CLR,-99.99,VWS V14.01,2013-04-11 05:28:00,
2013-04-11 01:29:00,62.8,56.5,30.15,South,181,0.0,0.0,80,-99.99,,CLR,-99.99,VWS V14.01,2013-04-11 05:29:00,
2013-04-11 01:31:00,62.8,56.5,30.15,SSE,152,0.0,0.0,80,-99.99,,CLR,-99.99,VWS V14.01,2013-04-11 05:31:00,
2013-04-11 01:34:00,62.6,56.7,30.18,SSE,160,0.0,0.0,81,-99.99,,CLR,-99.99,VWS V14.01,2013-04-11 05:34:00,
2013-04-11 01:35:00,62.6,56.7,30.18,SW,230,0.0,0.0,81,-99.99,,CLR,-99.99,VWS V14.01,2013-04-11 05:35:00,
2013-04-11 01:37:00,62.6,56.7,30.18,SW,221,0.0,0.0,81,-99.99,,CLR,-99.99,VWS V14.01,2013-04-11 05:37:00,
2013-04-11 01:40:00,62.6,57.0,30.18,SSW,196,0.0,0.0,82,-99.99,,CLR,-99.99,VWS V14.01,2013-04-11 05:40:00,
2013-04-11 01:42:00,62.6,57.0,30.18,South,189,0.0,0.0,82,-99.99,,CLR,-99.99,VWS V14.01,2013-04-11 05:42:00,
2013-04-11 01:43:00,62.6,57.0,30.18,SW,230,0.0,0.0,82,-99.99,,CLR,-99.99,VWS V14.01,2013-04-11 05:43:00,
2013-04-11 01:46:00,62.4,56.9,30.18,SSW,209,0.0,0.0,82,-99.99,,CLR,-99.99,VWS V14.01,2013-04-11 05:46:00,
2013-04-11 01:47:00,62.4,56.9,30.18,South,191,0.0,0.0,82,-99.99,,CLR,-99.99,VWS V14.01,2013-04-11 05:47:00,
2013-04-11 01:48:00,62.4,56.9,30.18,SSW,213,0.0,0.0,82,-99.99,,CLR,-99.99,VWS V14.01,2013-04-11 05:48:00,
2013-04-11 01:49:00,62.4,57.2,30.18,South,171,0.0,0.0,83,-99.99,,CLR,-99.99,VWS V14.01,2013-04-11 05:49:00,
2013-04-11 01:52:00,62.2,57.0,30.18,South,181,0.0,0.0,83,-99.99,,CLR,-99.99,VWS V14.01,2013-04-11 05:52:00,
2013-04-11 01:53:00,62.2,57.0,30.18,SSE,168,0.0,0.0,83,-99.99,,CLR,-99.99,VWS V14.01,2013-04-11 05:53:00,
2013-04-11 01:54:00,62.2,57.0,30.18,SW,214,3.6,4.9,83,-99.99,,CLR,-99.99,VWS V14.01,2013-04-11 05:54:00,
2013-04-11 01:55:00,62.2,57.0,30.18,SSE,168,6.3,6.3,83,-99.99,,CLR,-99.99,VWS V14.01,2013-04-11 05:55:00,
2013-04-11 01:57:00,62.2,57.0,30.18,SSE,162,0.0,4.0,83,-99.99,,CLR,-99.99,VWS V14.01,2013-04-11 05:57:00,
2013-04-11 01:58:00,62.1,56.8,30.18,South,188,3.6,5.4,83,-99.99,,CLR,-99.99,VWS V14.01,2013-04-11 05:58:00,
2013-04-11 02:00:00,62.1,56.8,30.18,South,186,3.1,4.5,83,-99.99,,CLR,-99.99,VWS V14.01,2013-04-11 06:00:00,
2013-04-11 02:03:00,62.1,57.2,30.18,South,177,4.0,4.0,84,-99.99,,CLR,-99.99,VWS V14.01,2013-04-11 06:03:00,
2013-04-11 02:04:00,62.1,57.2,30.18,SSE,161,4.9,5.4,84,-99.99,,CLR,-99.99,VWS V14.01,2013-04-11 06:04:00,
2013-04-11 02:05:00,62.1,57.5,30.18,SSE,168,3.6,4.9,85,-99.99,,CLR,-99.99,VWS V14.01,2013-04-11 06:05:00,
2013-04-11 02:07:00,61.9,57.3,30.18,SSW,197,3.1,5.4,85,-99.99,,CLR,-99.99,VWS V14.01,2013-04-11 06:07:00,
2013-04-11 02:08:00,61.9,57.3,30.18,WSW,238,4.0,4.9,85,-99.99,,CLR,-99.99,VWS V14.01,2013-04-11 06:08:00,
2013-04-11 02:09:00,61.9,57.3,30.18,SSE,165,0.0,3.1,85,-99.99,,CLR,-99.99,VWS V14.01,2013-04-11 06:09:00,
2013-04-11 02:11:00,61.9,57.3,30.18,SSW,213,3.6,3.6,85,-99.99,,CLR,-99.99,VWS V14.01,2013-04-11 06:11:00,
2013-04-11 02:12:00,61.9,57.3,30.18,SSE,160,3.1,4.9,85,-99.99,,CLR,-99.99,VWS V14.01,2013-04-11 06:12:00,
2013-04-11 02:13:00,61.9,57.7,30.18,SSW,196,3.1,4.0,86,-99.99,,CLR,-99.99,VWS V14.01,2013-04-11 06:13:00,
2013-04-11 02:14:00,61.7,57.5,30.18,South,189,3.6,3.6,86,-99.99,,CLR,-99.99,VWS V14.01,2013-04-11 06:14:00,
2013-04-11 02:17:00,61.7,57.5,30.18,SSW,201,0.0,0.0,86,-99.99,,CLR,-99.99,VWS V14.01,2013-04-11 06:17:00,
2013-04-11 02:19:00,61.7,57.8,30.15,SSW,194,0.0,0.0,87,-99.99,,CLR,-99.99,VWS V14.01,2013-04-11 06:19:00,
2013-04-11 02:21:00,61.7,57.8,30.15,South,175,0.0,0.0,87,-99.99,,CLR,-99.99,VWS V14.01,2013-04-11 06:21:00,
2013-04-11 02:22:00,61.7,57.8,30.15,South,175,0.0,0.0,87,-99.99,,CLR,-99.99,VWS V14.01,2013-04-11 06:22:00,
2013-04-11 02:23:00,61.5,57.6,30.15,South,175,0.0,0.0,87,-99.99,,CLR,-99.99,VWS V14.01,2013-04-11 06:23:00,
2013-04-11 02:24:00,61.5,57.6,30.15,SSW,200,0.0,0.0,87,-99.99,,CLR,-99.99,VWS V14.01,2013-04-11 06:24:00,
2013-04-11 02:27:00,61.5,57.6,30.15,South,172,0.0,0.0,87,-99.99,,CLR,-99.99,VWS V14.01,2013-04-11 06:27:00,
2013-04-11 02:28:00,61.5,57.9,30.15,South,183,0.0,0.0,88,-99.99,,CLR,-99.99,VWS V14.01,2013-04-11 06:28:00,
2013-04-11 02:29:00,61.3,57.8,30.15,SSW,199,0.0,0.0,88,-99.99,,CLR,-99.99,VWS V14.01,2013-04-11 06:29:00,
2013-04-11 02:33:00,61.3,57.8,30.15,SSE,165,0.0,0.0,88,-99.99,,CLR,-99.99,VWS V14.01,2013-04-11 06:33:00,
2013-04-11 02:34:00,61.3,57.8,30.15,SSE,165,0.0,0.0,88,-99.99,,CLR,-99.99,VWS V14.01,2013-04-11 06:34:00,
2013-04-11 02:39:00,61.2,57.6,30.15,South,176,0.0,0.0,88,-99.99,,CLR,-99.99,VWS V14.01,2013-04-11 06:39:00,
2013-04-11 02:40:00,61.2,57.6,30.15,South,175,0.0,0.0,88,-99.99,,CLR,-99.99,VWS V14.01,2013-04-11 06:40:00,
2013-04-11 02:41:00,61.0,57.4,30.15,South,182,0.0,0.0,88,-99.99,,CLR,-99.99,VWS V14.01,2013-04-11 06:41:00,
2013-04-11 02:45:00,61.0,57.4,30.15,South,177,0.0,0.0,88,-99.99,,CLR,-99.99,VWS V14.01,2013-04-11 06:45:00,
2013-04-11 02:46:00,61.0,57.7,30.15,South,170,0.0,0.0,89,-99.99,,CLR,-99.99,VWS V14.01,2013-04-11 06:46:00,
2013-04-11 02:50:00,60.8,57.5,30.15,South,185,0.0,0.0,89,-99.99,,CLR,-99.99,VWS V14.01,2013-04-11 06:50:00,
2013-04-11 02:51:00,60.8,57.5,30.15,South,187,0.0,0.0,89,-99.99,,CLR,-99.99,VWS V14.01,2013-04-11 06:51:00,
2013-04-11 02:52:00,60.8,57.5,30.15,South,187,0.0,0.0,89,-99.99,,CLR,-99.99,VWS V14.01,2013-04-11 06:52:00,
2013-04-11 02:56:00,60.6,57.4,30.15,SSW,208,0.0,0.0,89,-99.99,,CLR,-99.99,VWS V14.01,2013-04-11 06:56:00,
2013-04-11 02:57:00,60.6,57.4,30.15,SSW,207,0.0,0.0,89,-99.99,,CLR,-99.99,VWS V14.01,2013-04-11 06:57:00,
2013-04-11 02:58:00,60.6,57.7,30.15,South,184,0.0,0.0,90,-99.99,,CLR,-99.99,VWS V14.01,2013-04-11 06:58:00,
2013-04-11 03:02:00,60.4,57.5,30.15,South,184,0.0,0.0,90,-99.99,,CLR,-99.99,VWS V14.01,2013-04-11 07:02:00,
2013-04-11 03:03:00,60.4,57.5,30.15,South,184,0.0,0.0,90,-99.99,,CLR,-99.99,VWS V14.01,2013-04-11 07:03:00,
2013-04-11 03:04:00,60.4,57.5,30.15,South,184,0.0,0.0,90,-99.99,,CLR,-99.99,VWS V14.01,2013-04-11 07:04:00,
2013-04-11 03:08:00,60.3,57.3,30.15,South,190,0.0,0.0,90,-99.99,,CLR,-99.99,VWS V14.01,2013-04-11 07:08:00,
2013-04-11 03:09:00,60.1,57.1,30.15,South,190,0.0,0.0,90,-99.99,,CLR,-99.99,VWS V14.01,2013-04-11 07:09:00,
2013-04-11 03:13:00,60.1,57.1,30.15,South,190,0.0,0.0,90,-99.99,,CLR,-99.99,VWS V14.01,2013-04-11 07:13:00,
2013-04-11 03:14:00,60.1,57.1,30.15,South,190,0.0,0.0,90,-99.99,,CLR,-99.99,VWS V14.01,2013-04-11 07:14:00,
2013-04-11 03:16:00,60.1,57.1,30.15,South,172,0.0,0.0,90,-99.99,,CLR,-99.99,VWS V14.01,2013-04-11 07:16:00,
2013-04-11 03:19:00,60.1,57.5,30.15,South,175,0.0,0.0,91,-99.99,,CLR,-99.99,VWS V14.01,2013-04-11 07:19:00,
2013-04-11 03:21:00,60.1,57.5,30.15,South,186,0.0,0.0,91,-99.99,,CLR,-99.99,VWS V14.01,2013-04-11 07:21:00,
2013-04-11 03:22:00,60.1,57.5,30.15,South,183,0.0,0.0,91,-99.99,,CLR,-99.99,VWS V14.01,2013-04-11 07:22:00,
2013-04-11 03:24:00,60.1,57.5,30.15,South,183,0.0,0.0,91,-99.99,,CLR,-99.99,VWS V14.01,2013-04-11 07:24:00,
2013-04-11 03:25:00,60.1,57.5,30.15,South,183,0.0,0.0,91,-99.99,,CLR,-99.99,VWS V14.01,2013-04-11 07:25:00,
2013-04-11 03:27:00,59.9,57.3,30.15,South,182,0.0,0.0,91,-99.99,,CLR,-99.99,VWS V14.01,2013-04-11 07:27:00,
2013-04-11 03:30:00,59.9,57.6,30.15,SSE,150,0.0,0.0,92,-99.99,,CLR,-99.99,VWS V14.01,2013-04-11 07:30:00,
2013-04-11 03:32:00,59.9,57.6,30.15,SSE,150,0.0,0.0,92,-99.99,,CLR,-99.99,VWS V14.01,2013-04-11 07:32:00,
2013-04-11 03:35:00,59.7,57.4,30.15,SSE,150,0.0,0.0,92,-99.99,,CLR,-99.99,VWS V14.01,2013-04-11 07:35:00,
2013-04-11 03:36:00,59.7,57.4,30.15,SSE,150,0.0,0.0,92,-99.99,,CLR,-99.99,VWS V14.01,2013-04-11 07:36:00,
2013-04-11 03:38:00,59.7,57.4,30.15,SSE,150,0.0,0.0,92,-99.99,,CLR,-99.99,VWS V14.01,2013-04-11 07:38:00,
2013-04-11 03:40:00,59.5,57.2,30.15,SSE,150,0.0,0.0,92,-99.99,,CLR,-99.99,VWS V14.01,2013-04-11 07:40:00,
2013-04-11 03:43:00,59.5,57.2,30.15,SSE,150,0.0,0.0,92,-99.99,,CLR,-99.99,VWS V14.01,2013-04-11 07:43:00,
2013-04-11 03:44:00,59.4,57.0,30.15,SSE,150,0.0,3.6,92,-99.99,,CLR,-99.99,VWS V14.01,2013-04-11 07:44:00,
2013-04-11 03:46:00,59.4,57.0,30.15,SSE,162,0.0,3.1,92,-99.99,,CLR,-99.99,VWS V14.01,2013-04-11 07:46:00,
2013-04-11 03:48:00,59.4,57.3,30.15,SSE,162,0.0,0.0,93,-99.99,,CLR,-99.99,VWS V14.01,2013-04-11 07:48:00,
2013-04-11 03:50:00,59.4,57.3,30.15,SSE,162,0.0,0.0,93,-99.99,,CLR,-99.99,VWS V14.01,2013-04-11 07:50:00,
2013-04-11 03:51:00,59.4,57.3,30.15,SSE,162,0.0,2.7,93,-99.99,,CLR,-99.99,VWS V14.01,2013-04-11 07:51:00,
2013-04-11 03:53:00,59.4,57.3,30.15,SSE,162,0.0,0.0,93,-99.99,,CLR,-99.99,VWS V14.01,2013-04-11 07:53:00,
2013-04-11 03:54:00,59.4,57.3,30.15,SSE,162,0.0,0.0,93,-99.99,,CLR,-99.99,VWS V14.01,2013-04-11 07:54:00,
2013-04-11 03:55:00,59.4,57.3,30.15,West,268,0.0,4.0,93,-99.99,,CLR,-99.99,VWS V14.01,2013-04-11 07:55:00,
2013-04-11 03:56:00,59.2,57.2,30.15,SSE,162,4.0,4.0,93,-99.99,,CLR,-99.99,VWS V14.01,2013-04-11 07:56:00,
2013-04-11 03:59:00,59.2,57.2,30.15,SSE,162,0.0,0.0,93,-99.99,,CLR,-99.99,VWS V14.01,2013-04-11 07:59:00,
2013-04-11 04:01:00,59.2,57.2,30.15,SSE,162,0.0,0.0,93,-99.99,,CLR,-99.99,VWS V14.01,2013-04-11 08:01:00,
2013-04-11 04:03:00,59.2,57.2,30.15,SSE,162,0.0,0.0,93,-99.99,,CLR,-99.99,VWS V14.01,2013-04-11 08:03:00,
2013-04-11 04:04:00,59.2,57.2,30.15,South,175,0.0,4.0,93,-99.99,,CLR,-99.99,VWS V14.01,2013-04-11 08:04:00,
2013-04-11 04:05:00,59.0,57.0,30.15,South,175,0.0,0.0,93,-99.99,,CLR,-99.99,VWS V14.01,2013-04-11 08:05:00,
2013-04-11 04:07:00,59.0,57.0,30.15,South,175,0.0,0.0,93,-99.99,,CLR,-99.99,VWS V14.01,2013-04-11 08:07:00,
2013-04-11 04:08:00,59.0,57.0,30.15,South,175,0.0,0.0,93,-99.99,,CLR,-99.99,VWS V14.01,2013-04-11 08:08:00,
2013-04-11 04:10:00,59.0,57.0,30.15,South,175,0.0,0.0,93,-99.99,,CLR,-99.99,VWS V14.01,2013-04-11 08:10:00,
2013-04-11 04:12:00,58.8,56.8,30.15,South,175,0.0,0.0,93,-99.99,,CLR,-99.99,VWS V14.01,2013-04-11 08:12:00,
2013-04-11 04:13:00,58.8,56.8,30.15,South,175,0.0,0.0,93,-99.99,,CLR,-99.99,VWS V14.01,2013-04-11 08:13:00,
2013-04-11 04:15:00,58.8,56.8,30.15,South,175,0.0,0.0,93,-99.99,,CLR,-99.99,VWS V14.01,2013-04-11 08:15:00,
2013-04-11 04:17:00,58.6,56.6,30.15,South,175,0.0,0.0,93,-99.99,,CLR,-99.99,VWS V14.01,2013-04-11 08:17:00,
2013-04-11 04:19:00,58.6,56.6,30.15,South,175,0.0,0.0,93,-99.99,,CLR,-99.99,VWS V14.01,2013-04-11 08:19:00,
2013-04-11 04:21:00,58.5,56.5,30.15,South,175,0.0,0.0,93,-99.99,,CLR,-99.99,VWS V14.01,2013-04-11 08:21:00,
2013-04-11 04:23:00,58.5,56.5,30.15,South,175,0.0,0.0,93,-99.99,,CLR,-99.99,VWS V14.01,2013-04-11 08:23:00,
2013-04-11 04:24:00,58.5,56.5,30.15,South,175,0.0,0.0,93,-99.99,,CLR,-99.99,VWS V14.01,2013-04-11 08:24:00,
2013-04-11 04:26:00,58.5,56.7,30.15,South,175,0.0,0.0,94,-99.99,,CLR,-99.99,VWS V14.01,2013-04-11 08:26:00,
2013-04-11 04:28:00,58.5,56.7,30.15,South,175,0.0,0.0,94,-99.99,,CLR,-99.99,VWS V14.01,2013-04-11 08:28:00,
2013-04-11 04:29:00,58.5,56.7,30.15,South,175,0.0,0.0,94,-99.99,,CLR,-99.99,VWS V14.01,2013-04-11 08:29:00,
2013-04-11 04:32:00,58.3,56.6,30.15,South,175,0.0,0.0,94,-99.99,,CLR,-99.99,VWS V14.01,2013-04-11 08:32:00,
2013-04-11 04:33:00,58.3,56.6,30.15,South,175,0.0,0.0,94,-99.99,,CLR,-99.99,VWS V14.01,2013-04-11 08:33:00,
2013-04-11 04:34:00,58.3,56.6,30.15,South,175,0.0,0.0,94,-99.99,,CLR,-99.99,VWS V14.01,2013-04-11 08:34:00,
2013-04-11 04:35:00,58.3,56.6,30.15,South,175,0.0,0.0,94,-99.99,,CLR,-99.99,VWS V14.01,2013-04-11 08:35:00,
2013-04-11 04:37:00,58.3,56.6,30.15,South,175,0.0,0.0,94,-99.99,,CLR,-99.99,VWS V14.01,2013-04-11 08:37:00,
2013-04-11 04:39:00,58.3,56.6,30.15,South,175,0.0,0.0,94,-99.99,,CLR,-99.99,VWS V14.01,2013-04-11 08:39:00,
2013-04-11 04:40:00,58.3,56.6,30.15,South,175,0.0,0.0,94,-99.99,,CLR,-99.99,VWS V14.01,2013-04-11 08:40:00,
2013-04-11 04:41:00,58.3,56.6,30.15,South,175,0.0,0.0,94,-99.99,,CLR,-99.99,VWS V14.01,2013-04-11 08:41:00,
2013-04-11 04:42:00,58.1,56.4,30.15,South,174,0.0,0.0,94,-99.99,,CLR,-99.99,VWS V14.01,2013-04-11 08:42:00,
2013-04-11 04:45:00,58.1,56.4,30.15,South,175,0.0,0.0,94,-99.99,,CLR,-99.99,VWS V14.01,2013-04-11 08:45:00,
2013-04-11 04:46:00,58.1,56.4,30.15,South,175,0.0,0.0,94,-99.99,,CLR,-99.99,VWS V14.01,2013-04-11 08:46:00,
2013-04-11 04:47:00,58.1,56.4,30.15,South,175,0.0,0.0,94,-99.99,,CLR,-99.99,VWS V14.01,2013-04-11 08:47:00,
2013-04-11 04:50:00,58.1,56.7,30.15,South,176,0.0,0.0,95,-99.99,,CLR,-99.99,VWS V14.01,2013-04-11 08:50:00,
2013-04-11 04:51:00,58.1,56.7,30.15,South,176,0.0,0.0,95,-99.99,,CLR,-99.99,VWS V14.01,2013-04-11 08:51:00,
2013-04-11 04:52:00,58.1,56.7,30.15,South,176,0.0,0.0,95,-99.99,,CLR,-99.99,VWS V14.01,2013-04-11 08:52:00,
2013-04-11 04:53:00,58.1,56.7,30.15,South,176,0.0,0.0,95,-99.99,,CLR,-99.99,VWS V14.01,2013-04-11 08:53:00,
2013-04-11 04:55:00,58.1,56.7,30.15,South,176,0.0,0.0,95,-99.99,,CLR,-99.99,VWS V14.01,2013-04-11 08:55:00,
2013-04-11 04:58:00,57.9,56.5,30.15,South,176,0.0,0.0,95,-99.99,,CLR,-99.99,VWS V14.01,2013-04-11 08:58:00,
2013-04-11 05:01:00,57.9,56.5,30.15,South,176,0.0,0.0,95,-99.99,,CLR,-99.99,VWS V14.01,2013-04-11 09:01:00,
2013-04-11 05:03:00,57.9,56.5,30.15,South,176,0.0,0.0,95,-99.99,,CLR,-99.99,VWS V14.01,2013-04-11 09:03:00,
2013-04-11 05:04:00,57.9,56.5,30.15,South,176,0.0,0.0,95,-99.99,,CLR,-99.99,VWS V14.01,2013-04-11 09:04:00,
2013-04-11 05:08:00,58.1,56.7,30.15,South,176,0.0,0.0,95,-99.99,,CLR,-99.99,VWS V14.01,2013-04-11 09:08:00,
2013-04-11 05:09:00,57.9,56.5,30.15,South,176,0.0,0.0,95,-99.99,,CLR,-99.99,VWS V14.01,2013-04-11 09:09:00,
2013-04-11 05:10:00,58.1,56.7,30.15,South,176,0.0,0.0,95,-99.99,,CLR,-99.99,VWS V14.01,2013-04-11 09:10:00,
2013-04-11 05:13:00,57.9,56.8,30.15,South,173,0.0,0.0,96,-99.99,,CLR,-99.99,VWS V14.01,2013-04-11 09:13:00,
2013-04-11 05:14:00,57.9,56.8,30.15,South,173,0.0,0.0,96,-99.99,,CLR,-99.99,VWS V14.01,2013-04-11 09:14:00,
2013-04-11 05:15:00,58.1,57.0,30.15,South,173,0.0,0.0,96,-99.99,,CLR,-99.99,VWS V14.01,2013-04-11 09:15:00,
2013-04-11 05:16:00,58.1,57.0,30.15,South,173,0.0,0.0,96,-99.99,,CLR,-99.99,VWS V14.01,2013-04-11 09:16:00,
2013-04-11 05:19:00,58.1,57.0,30.15,South,173,0.0,0.0,96,-99.99,,CLR,-99.99,VWS V14.01,2013-04-11 09:19:00,
2013-04-11 05:20:00,58.1,57.0,30.15,South,173,0.0,0.0,96,-99.99,,CLR,-99.99,VWS V14.01,2013-04-11 09:20:00,
2013-04-11 05:21:00,58.1,57.0,30.15,South,173,0.0,0.0,96,-99.99,,CLR,-99.99,VWS V14.01,2013-04-11 09:21:00,
2013-04-11 05:23:00,58.1,57.0,30.15,South,174,0.0,0.0,96,-99.99,,CLR,-99.99,VWS V14.01,2013-04-11 09:23:00,
2013-04-11 05:25:00,58.1,57.0,30.15,South,174,0.0,0.0,96,-99.99,,CLR,-99.99,VWS V14.01,2013-04-11 09:25:00,
2013-04-11 05:26:00,58.1,57.0,30.15,South,174,0.0,0.0,96,-99.99,,CLR,-99.99,VWS V14.01,2013-04-11 09:26:00,
2013-04-11 05:28:00,58.1,57.0,30.15,South,174,0.0,3.6,96,-99.99,,CLR,-99.99,VWS V14.01,2013-04-11 09:28:00,
2013-04-11 05:30:00,57.9,56.8,30.15,South,174,0.0,3.1,96,-99.99,,CLR,-99.99,VWS V14.01,2013-04-11 09:30:00,
2013-04-11 05:31:00,57.9,56.8,30.15,South,174,0.0,0.0,96,-99.99,,CLR,-99.99,VWS V14.01,2013-04-11 09:31:00,
2013-04-11 05:32:00,57.9,56.8,30.15,South,174,0.0,0.0,96,-99.99,,CLR,-99.99,VWS V14.01,2013-04-11 09:32:00,
2013-04-11 05:33:00,57.9,56.8,30.15,South,174,0.0,0.0,96,-99.99,,CLR,-99.99,VWS V14.01,2013-04-11 09:33:00,
2013-04-11 05:35:00,57.9,56.8,30.15,South,174,0.0,0.0,96,-99.99,,CLR,-99.99,VWS V14.01,2013-04-11 09:35:00,
2013-04-11 05:37:00,57.9,56.8,30.15,South,174,0.0,0.0,96,-99.99,,CLR,-99.99,VWS V14.01,2013-04-11 09:37:00,
2013-04-11 05:38:00,57.9,56.8,30.15,South,174,0.0,0.0,96,-99.99,,CLR,-99.99,VWS V14.01,2013-04-11 09:38:00,
2013-04-11 05:41:00,57.9,56.8,30.15,South,174,0.0,0.0,96,-99.99,,CLR,-99.99,VWS V14.01,2013-04-11 09:41:00,
2013-04-11 05:43:00,57.9,56.8,30.15,South,174,0.0,0.0,96,-99.99,,CLR,-99.99,VWS V14.01,2013-04-11 09:43:00,
2013-04-11 05:44:00,57.9,56.8,30.15,South,174,0.0,0.0,96,-99.99,,CLR,-99.99,VWS V14.01,2013-04-11 09:44:00,
2013-04-11 05:47:00,58.1,57.3,30.15,South,174,0.0,0.0,97,-99.99,,CLR,-99.99,VWS V14.01,2013-04-11 09:47:00,
2013-04-11 05:48:00,58.1,57.0,30.15,South,174,0.0,0.0,96,-99.99,,CLR,-99.99,VWS V14.01,2013-04-11 09:48:00,
2013-04-11 05:49:00,58.1,57.0,30.15,South,174,0.0,0.0,96,-99.99,,CLR,-99.99,VWS V14.01,2013-04-11 09:49:00,
2013-04-11 05:50:00,58.3,57.2,30.15,South,174,0.0,0.0,96,-99.99,,CLR,-99.99,VWS V14.01,2013-04-11 09:50:00,
2013-04-11 05:52:00,58.3,57.2,30.15,South,174,0.0,0.0,96,-99.99,,CLR,-99.99,VWS V14.01,2013-04-11 09:52:00,
2013-04-11 05:53:00,58.5,57.6,30.15,South,174,0.0,0.0,97,-99.99,,CLR,-99.99,VWS V14.01,2013-04-11 09:53:00,
2013-04-11 05:54:00,58.5,57.6,30.15,South,174,0.0,0.0,97,-99.99,,CLR,-99.99,VWS V14.01,2013-04-11 09:54:00,
2013-04-11 05:55:00,58.5,57.6,30.15,South,175,0.0,0.0,97,-99.99,,CLR,-99.99,VWS V14.01,2013-04-11 09:55:00,
2013-04-11 05:58:00,58.8,58.0,30.15,SSW,199,0.0,2.7,97,-99.99,,CLR,-99.99,VWS V14.01,2013-04-11 09:58:00,
2013-04-11 05:59:00,58.8,58.0,30.15,SSW,193,0.0,0.0,97,-99.99,,CLR,-99.99,VWS V14.01,2013-04-11 09:59:00,
2013-04-11 06:01:00,58.8,58.0,30.15,South,188,0.0,0.0,97,-99.99,,CLR,-99.99,VWS V14.01,2013-04-11 10:01:00,
2013-04-11 06:03:00,59.2,58.3,30.15,South,189,0.0,0.0,97,-99.99,,CLR,-99.99,VWS V14.01,2013-04-11 10:03:00,
2013-04-11 06:04:00,59.2,58.3,30.15,South,188,0.0,0.0,97,-99.99,,CLR,-99.99,VWS V14.01,2013-04-11 10:04:00,
2013-04-11 06:06:00,59.2,58.3,30.15,South,188,0.0,0.0,97,-99.99,,CLR,-99.99,VWS V14.01,2013-04-11 10:06:00,
2013-04-11 06:08:00,59.4,58.5,30.15,SW,225,5.4,5.4,97,-99.99,,CLR,-99.99,VWS V14.01,2013-04-11 10:08:00,
2013-04-11 06:09:00,59.4,58.5,30.15,SSE,154,3.6,6.7,97,-99.99,,CLR,-99.99,VWS V14.01,2013-04-11 10:09:00,
2013-04-11 06:11:00,59.5,58.7,30.15,South,179,3.1,5.8,97,-99.99,,CLR,-99.99,VWS V14.01,2013-04-11 10:11:00,
2013-04-11 06:14:00,59.5,58.7,30.15,South,170,0.0,3.6,97,-99.99,,CLR,-99.99,VWS V14.01,2013-04-11 10:14:00,
2013-04-11 06:15:00,59.5,58.7,30.15,SSW,192,3.1,4.0,97,-99.99,,CLR,-99.99,VWS V14.01,2013-04-11 10:15:00,
2013-04-11 06:17:00,59.7,58.9,30.15,South,191,0.0,0.0,97,-99.99,,CLR,-99.99,VWS V14.01,2013-04-11 10:17:00,
2013-04-11 06:18:00,59.7,58.9,30.15,South,190,0.0,2.7,97,-99.99,,CLR,-99.99,VWS V14.01,2013-04-11 10:18:00,
2013-04-11 06:19:00,59.7,58.9,30.15,South,190,0.0,0.0,97,-99.99,,CLR,-99.99,VWS V14.01,2013-04-11 10:19:00,
2013-04-11 06:21:00,59.7,58.9,30.15,South,190,0.0,0.0,97,-99.99,,CLR,-99.99,VWS V14.01,2013-04-11 10:21:00,
2013-04-11 06:23:00,59.7,58.9,30.15,South,190,0.0,0.0,97,-99.99,,FEW004,-99.99,VWS V14.01,2013-04-11 10:23:00,
2013-04-11 06:25:00,59.7,58.9,30.15,South,182,0.0,4.0,97,-99.99,,FEW004,-99.99,VWS V14.01,2013-04-11 10:25:00,
2013-04-11 06:28:00,59.9,59.0,30.15,South,182,0.0,0.0,97,-99.99,,FEW004,-99.99,VWS V14.01,2013-04-11 10:28:00,
2013-04-11 06:29:00,59.9,59.0,30.15,South,182,0.0,0.0,97,-99.99,,FEW004,-99.99,VWS V14.01,2013-04-11 10:29:00,
2013-04-11 06:32:00,59.9,59.0,30.15,South,181,0.0,3.6,97,-99.99,,FEW004,-99.99,VWS V14.01,2013-04-11 10:32:00,
2013-04-11 06:33:00,60.1,59.2,30.15,SSW,211,4.0,5.4,97,-99.99,,FEW004,-99.99,VWS V14.01,2013-04-11 10:33:00,
2013-04-11 06:34:00,60.1,59.2,30.15,SSW,195,4.5,5.4,97,-99.99,,FEW004,-99.99,VWS V14.01,2013-04-11 10:34:00,
2013-04-11 06:39:00,60.1,59.2,30.15,South,173,3.1,3.1,97,-99.99,,FEW004,-99.99,VWS V14.01,2013-04-11 10:39:00,
2013-04-11 06:40:00,60.1,59.2,30.15,South,173,0.0,2.7,97,-99.99,,FEW004,-99.99,VWS V14.01,2013-04-11 10:40:00,
2013-04-11 06:44:00,60.1,59.2,30.15,South,177,3.1,6.7,97,-99.99,,FEW004,-99.99,VWS V14.01,2013-04-11 10:44:00,
2013-04-11 06:47:00,60.1,59.2,30.15,SSE,160,5.4,5.8,97,-99.99,,FEW004,-99.99,VWS V14.01,2013-04-11 10:47:00,
2013-04-11 06:49:00,60.3,59.4,30.15,South,180,4.0,4.9,97,-99.99,,FEW004,-99.99,VWS V14.01,2013-04-11 10:49:00,
2013-04-11 06:51:00,60.3,59.4,30.15,South,175,3.1,3.6,97,-99.99,,FEW004,-99.99,VWS V14.01,2013-04-11 10:51:00,
2013-04-11 06:53:00,60.3,59.4,30.15,SSE,168,2.7,3.6,97,-99.99,,,-99.99,VWS V14.01,2013-04-11 10:53:00,
2013-04-11 06:55:00,60.3,59.4,30.15,SSW,204,0.0,0.0,97,-99.99,,,-99.99,VWS V14.01,2013-04-11 10:55:00,
2013-04-11 06:57:00,60.3,59.4,30.15,South,178,0.0,4.0,97,-99.99,,,-99.99,VWS V14.01,2013-04-11 10:57:00,
2013-04-11 06:59:00,60.3,59.4,30.15,South,178,0.0,0.0,97,-99.99,,,-99.99,VWS V14.01,2013-04-11 10:59:00,
2013-04-11 07:00:00,60.3,59.4,30.15,SSE,156,3.6,4.0,97,-99.99,,,-99.99,VWS V14.01,2013-04-11 11:00:00,
2013-04-11 07:02:00,60.3,59.4,30.15,South,179,3.1,4.5,97,-99.99,,,-99.99,VWS V14.01,2013-04-11 11:02:00,
2013-04-11 07:03:00,60.3,59.4,30.15,South,191,0.0,4.9,97,-99.99,,,-99.99,VWS V14.01,2013-04-11 11:03:00,
2013-04-11 07:05:00,60.3,59.4,30.15,SSW,202,0.0,3.6,97,-99.99,,,-99.99,VWS V14.01,2013-04-11 11:05:00,
2013-04-11 07:06:00,60.3,59.4,30.15,SSW,200,2.7,2.7,97,-99.99,,,-99.99,VWS V14.01,2013-04-11 11:06:00,
2013-04-11 07:07:00,60.4,59.6,30.15,SSE,161,0.0,5.4,97,-99.99,,,-99.99,VWS V14.01,2013-04-11 11:07:00,
2013-04-11 07:09:00,60.4,59.6,30.15,SSE,161,0.0,0.0,97,-99.99,,,-99.99,VWS V14.01,2013-04-11 11:09:00,
2013-04-11 07:11:00,60.4,59.6,30.15,SSE,161,0.0,0.0,97,-99.99,,,-99.99,VWS V14.01,2013-04-11 11:11:00,
2013-04-11 07:14:00,60.4,59.6,30.15,SSE,161,0.0,0.0,97,-99.99,,,-99.99,VWS V14.01,2013-04-11 11:14:00,
2013-04-11 07:15:00,60.4,59.6,30.15,SSE,161,0.0,0.0,97,-99.99,,,-99.99,VWS V14.01,2013-04-11 11:15:00,
2013-04-11 07:18:00,60.6,59.8,30.18,SSE,161,0.0,0.0,97,-99.99,,,-99.99,VWS V14.01,2013-04-11 11:18:00,
2013-04-11 07:19:00,60.6,59.8,30.18,SSE,161,0.0,0.0,97,-99.99,,,-99.99,VWS V14.01,2013-04-11 11:19:00,
2013-04-11 07:20:00,60.6,59.8,30.18,SSE,161,0.0,0.0,97,-99.99,,,-99.99,VWS V14.01,2013-04-11 11:20:00,
2013-04-11 07:23:00,60.8,60.0,30.18,SSE,161,0.0,0.0,97,-99.99,,,-99.99,VWS V14.01,2013-04-11 11:23:00,
2013-04-11 07:25:00,60.8,60.0,30.18,SSE,161,0.0,0.0,97,-99.99,,,-99.99,VWS V14.01,2013-04-11 11:25:00,
2013-04-11 07:28:00,61.0,60.1,30.18,SSE,161,0.0,0.0,97,-99.99,,,-99.99,VWS V14.01,2013-04-11 11:28:00,
2013-04-11 07:30:00,61.0,60.1,30.18,SSE,161,0.0,0.0,97,-99.99,,,-99.99,VWS V14.01,2013-04-11 11:30:00,
2013-04-11 07:31:00,61.0,60.1,30.18,SSE,161,0.0,0.0,97,-99.99,,,-99.99,VWS V14.01,2013-04-11 11:31:00,
2013-04-11 07:34:00,61.2,60.3,30.18,SSE,161,0.0,0.0,97,-99.99,,,-99.99,VWS V14.01,2013-04-11 11:34:00,
2013-04-11 07:36:00,61.2,60.3,30.18,SSW,196,4.9,4.9,97,-99.99,,,-99.99,VWS V14.01,2013-04-11 11:36:00,
2013-04-11 07:37:00,61.2,60.3,30.18,SW,226,0.0,0.0,97,-99.99,,,-99.99,VWS V14.01,2013-04-11 11:37:00,
2013-04-11 07:39:00,61.3,60.5,30.18,South,190,0.0,0.0,97,-99.99,,,-99.99,VWS V14.01,2013-04-11 11:39:00,
2013-04-11 07:41:00,61.3,60.5,30.18,South,178,3.1,5.4,97,-99.99,,,-99.99,VWS V14.01,2013-04-11 11:41:00,
2013-04-11 07:44:00,61.5,60.7,30.18,South,181,3.1,3.1,97,-99.99,,,-99.99,VWS V14.01,2013-04-11 11:44:00,
2013-04-11 07:45:00,61.5,60.7,30.18,South,177,4.0,4.9,97,-99.99,,,-99.99,VWS V14.01,2013-04-11 11:45:00,
2013-04-11 07:48:00,61.7,60.8,30.18,South,190,3.6,3.6,97,-99.99,,,-99.99,VWS V14.01,2013-04-11 11:48:00,
2013-04-11 07:49:00,61.7,60.8,30.18,SSE,163,3.1,4.9,97,-99.99,,,-99.99,VWS V14.01,2013-04-11 11:49:00,
2013-04-11 07:50:00,61.7,60.8,30.18,SSE,163,0.0,4.9,97,-99.99,,,-99.99,VWS V14.01,2013-04-11 11:50:00,
2013-04-11 07:51:00,61.7,60.8,30.18,SSE,150,3.6,3.6,97,-99.99,,,-99.99,VWS V14.01,2013-04-11 11:51:00,
2013-04-11 07:54:00,61.9,61.0,30.18,SSW,203,3.1,3.1,97,-99.99,,,-99.99,VWS V14.01,2013-04-11 11:54:00,
2013-04-11 07:55:00,61.9,61.0,30.18,SSE,153,4.5,4.9,97,-99.99,,,-99.99,VWS V14.01,2013-04-11 11:55:00,
2013-04-11 07:56:00,62.1,61.2,30.18,SSE,151,6.3,6.3,97,-99.99,,,-99.99,VWS V14.01,2013-04-11 11:56:00,
2013-04-11 08:00:00,62.2,61.4,30.18,SSE,152,0.0,3.1,97,-99.99,,,-99.99,VWS V14.01,2013-04-11 12:00:00,
2013-04-11 08:01:00,62.2,61.4,30.18,SSE,152,2.7,2.7,97,-99.99,,,-99.99,VWS V14.01,2013-04-11 12:01:00,
2013-04-11 08:02:00,62.4,61.6,30.18,SSE,154,4.5,4.9,97,-99.99,,,-99.99,VWS V14.01,2013-04-11 12:02:00,
2013-04-11 08:05:00,62.6,61.7,30.18,SSE,158,0.0,0.0,97,-99.99,,,-99.99,VWS V14.01,2013-04-11 12:05:00,
2013-04-11 08:06:00,62.6,61.7,30.18,SSE,158,0.0,0.0,97,-99.99,,,-99.99,VWS V14.01,2013-04-11 12:06:00,
2013-04-11 08:07:00,62.8,61.9,30.18,South,179,3.6,4.0,97,-99.99,,,-99.99,VWS V14.01,2013-04-11 12:07:00,
2013-04-11 08:08:00,63.0,62.1,30.18,SSE,166,3.1,5.4,97,-99.99,,,-99.99,VWS V14.01,2013-04-11 12:08:00,
2013-04-11 08:11:00,63.1,62.3,30.18,SSW,192,3.1,3.6,97,-99.99,,,-99.99,VWS V14.01,2013-04-11 12:11:00,
2013-04-11 08:13:00,63.1,62.3,30.18,SSE,166,0.0,3.6,97,-99.99,,,-99.99,VWS V14.01,2013-04-11 12:13:00,
2013-04-11 08:14:00,63.1,62.3,30.18,South,184,0.0,0.0,97,-99.99,,,-99.99,VWS V14.01,2013-04-11 12:14:00,
2013-04-11 08:16:00,63.1,62.3,30.18,SSE,167,0.0,3.6,97,-99.99,,,-99.99,VWS V14.01,2013-04-11 12:16:00,
2013-04-11 08:18:00,63.1,62.3,30.18,WSW,237,5.4,5.4,97,-99.99,,,-99.99,VWS V14.01,2013-04-11 12:18:00,
2013-04-11 08:19:00,63.1,62.3,30.18,SW,219,4.5,5.4,97,-99.99,,,-99.99,VWS V14.01,2013-04-11 12:19:00,
2013-04-11 08:21:00,63.3,62.5,30.18,SSW,192,0.0,3.6,97,-99.99,,,-99.99,VWS V14.01,2013-04-11 12:21:00,
2013-04-11 08:22:00,63.3,62.5,30.18,South,184,2.7,4.9,97,-99.99,,,-99.99,VWS V14.01,2013-04-11 12:22:00,
2013-04-11 08:24:00,63.5,62.6,30.18,SSW,199,0.0,0.0,97,-99.99,,,-99.99,VWS V14.01,2013-04-11 12:24:00,
2013-04-11 08:26:00,63.7,62.8,30.18,SSW,198,4.0,4.9,97,-99.99,,,-99.99,VWS V14.01,2013-04-11 12:26:00,
2013-04-11 08:28:00,63.9,63.0,30.18,SSE,166,2.7,3.6,97,-99.99,,,-99.99,VWS V14.01,2013-04-11 12:28:00,
2013-04-11 08:29:00,63.9,63.0,30.18,South,175,5.4,5.4,97,-99.99,,,-99.99,VWS V14.01,2013-04-11 12:29:00,
2013-04-11 08:30:00,63.9,63.0,30.18,SSW,198,0.0,2.7,97,-99.99,,,-99.99,VWS V14.01,2013-04-11 12:30:00,
2013-04-11 08:33:00,64.0,63.2,30.18,SSE,165,0.0,4.9,97,-99.99,,,-99.99,VWS V14.01,2013-04-11 12:33:00,
2013-04-11 08:34:00,64.0,63.2,30.18,SSE,165,0.0,0.0,97,-99.99,,,-99.99,VWS V14.01,2013-04-11 12:34:00,
2013-04-11 08:35:00,64.0,63.2,30.18,SSE,165,3.6,4.5,97,-99.99,,,-99.99,VWS V14.01,2013-04-11 12:35:00,
2013-04-11 08:38:00,64.2,63.3,30.18,South,176,0.0,4.5,97,-99.99,,,-99.99,VWS V14.01,2013-04-11 12:38:00,
2013-04-11 08:39:00,64.2,63.3,30.18,SSE,148,5.4,5.4,97,-99.99,,,-99.99,VWS V14.01,2013-04-11 12:39:00,
2013-04-11 08:43:00,64.4,63.5,30.18,SSE,153,5.4,7.4,97,-99.99,,,-99.99,VWS V14.01,2013-04-11 12:43:00,
2013-04-11 08:44:00,64.4,63.5,30.18,South,190,2.7,4.0,97,-99.99,,,-99.99,VWS V14.01,2013-04-11 12:44:00,
2013-04-11 08:45:00,64.6,63.7,30.18,SSE,153,4.5,4.9,97,-99.99,,,-99.99,VWS V14.01,2013-04-11 12:45:00,
2013-04-11 08:47:00,64.6,63.7,30.18,SSE,155,0.0,0.0,97,-99.99,,,-99.99,VWS V14.01,2013-04-11 12:47:00,
2013-04-11 08:48:00,64.8,63.9,30.18,SSW,200,3.6,3.6,97,-99.99,,BKN019,-99.99,VWS V14.01,2013-04-11 12:48:00,
2013-04-11 08:49:00,64.9,64.1,30.18,South,180,6.7,6.7,97,-99.99,,BKN019,-99.99,VWS V14.01,2013-04-11 12:49:00,
2013-04-11 08:50:00,64.9,64.1,30.18,South,173,4.5,6.7,97,-99.99,,BKN019,-99.99,VWS V14.01,2013-04-11 12:50:00,
2013-04-11 08:52:00,65.1,64.2,30.18,SSW,195,4.5,4.9,97,-99.99,,BKN019,-99.99,VWS V14.01,2013-04-11 12:52:00,
2013-04-11 08:54:00,65.5,64.6,30.18,SW,217,4.0,7.8,97,-99.99,,BKN019,-99.99,VWS V14.01,2013-04-11 12:54:00,
2013-04-11 08:55:00,65.5,64.6,30.18,SSW,197,6.7,6.7,97,-99.99,,BKN019,-99.99,VWS V14.01,2013-04-11 12:55:00,
2013-04-11 08:57:00,65.7,64.8,30.18,South,183,2.7,3.6,97,-99.99,,BKN019,-99.99,VWS V14.01,2013-04-11 12:57:00,
2013-04-11 08:58:00,65.8,65.0,30.18,South,188,0.0,0.0,97,-99.99,,BKN019,-99.99,VWS V14.01,2013-04-11 12:58:00,
2013-04-11 08:59:00,65.8,65.0,30.18,ESE,123,0.0,0.0,97,-99.99,,BKN019,-99.99,VWS V14.01,2013-04-11 12:59:00,
2013-04-11 09:01:00,66.2,65.3,30.18,SE,125,0.0,4.0,97,-99.99,,BKN019,-99.99,VWS V14.01,2013-04-11 13:01:00,
2013-04-11 09:02:00,66.4,65.5,30.18,South,172,5.4,6.9,97,-99.99,,BKN019,-99.99,VWS V14.01,2013-04-11 13:02:00,
2013-04-11 09:03:00,66.4,65.5,30.18,SSW,197,4.5,4.5,97,-99.99,,BKN019,-99.99,VWS V14.01,2013-04-11 13:03:00,
2013-04-11 09:05:00,66.6,65.7,30.18,SE,144,3.6,4.5,97,-99.99,,BKN019,-99.99,VWS V14.01,2013-04-11 13:05:00,
2013-04-11 09:07:00,66.9,66.0,30.18,SW,219,3.6,4.5,97,-99.99,,BKN019,-99.99,VWS V14.01,2013-04-11 13:07:00,
2013-04-11 09:08:00,66.7,65.9,30.18,SSW,197,2.7,4.9,97,-99.99,,BKN019,-99.99,VWS V14.01,2013-04-11 13:08:00,
2013-04-11 09:09:00,66.9,66.0,30.18,SSE,149,4.0,5.4,97,-99.99,,BKN019,-99.99,VWS V14.01,2013-04-11 13:09:00,
2013-04-11 09:10:00,66.9,66.0,30.18,South,187,0.0,5.4,97,-99.99,,BKN019,-99.99,VWS V14.01,2013-04-11 13:10:00,
2013-04-11 09:13:00,67.3,66.4,30.18,SSW,193,4.0,4.0,97,-99.99,,BKN019,-99.99,VWS V14.01,2013-04-11 13:13:00,
2013-04-11 09:14:00,67.5,66.6,30.18,SW,233,4.9,4.9,97,-99.99,,BKN019,-99.99,VWS V14.01,2013-04-11 13:14:00,
2013-04-11 09:15:00,67.6,66.8,30.18,SW,216,4.5,5.4,97,-99.99,,BKN019,-99.99,VWS V14.01,2013-04-11 13:15:00,
2013-04-11 09:18:00,68.7,67.8,30.18,SSE,161,2.7,4.9,97,-99.99,,SCT031,-99.99,VWS V14.01,2013-04-11 13:18:00,
2013-04-11 09:19:00,68.9,68.0,30.18,SSE,162,8.3,8.3,97,-99.99,,SCT031,-99.99,VWS V14.01,2013-04-11 13:19:00,
2013-04-11 09:20:00,68.9,68.0,30.18,SW,226,6.7,9.2,97,-99.99,,SCT031,-99.99,VWS V14.01,2013-04-11 13:20:00,
2013-04-11 09:24:00,69.4,67.6,30.18,SE,139,4.9,5.8,94,-99.99,,SCT031,-99.99,VWS V14.01,2013-04-11 13:24:00,
2013-04-11 09:25:00,69.8,67.4,30.18,South,189,4.9,4.9,92,-99.99,,SCT031,-99.99,VWS V14.01,2013-04-11 13:25:00,
2013-04-11 09:26:00,70.0,67.2,30.18,SSW,198,7.8,7.8,91,-99.99,,SCT031,-99.99,VWS V14.01,2013-04-11 13:26:00,
2013-04-11 09:29:00,70.3,66.9,30.18,SSW,194,4.5,4.9,89,-99.99,,SCT031,-99.99,VWS V14.01,2013-04-11 13:29:00,
2013-04-11 09:31:00,70.7,67.0,30.18,SSW,192,7.4,7.4,88,-99.99,,SCT031,-99.99,VWS V14.01,2013-04-11 13:31:00,
2013-04-11 09:35:00,71.1,64.9,30.18,SSE,147,2.7,4.9,81,-99.99,,SCT031,-99.99,VWS V14.01,2013-04-11 13:35:00,
2013-04-11 09:36:00,71.2,64.4,30.18,SSW,199,4.0,7.4,79,-99.99,,SCT031,-99.99,VWS V14.01,2013-04-11 13:36:00,
2013-04-11 09:38:00,71.6,64.8,30.18,SSW,213,3.6,5.8,79,-99.99,,SCT031,-99.99,VWS V14.01,2013-04-11 13:38:00,
2013-04-11 09:40:00,71.8,63.8,30.18,SE,143,4.5,7.4,76,-99.99,,SCT031,-99.99,VWS V14.01,2013-04-11 13:40:00,
2013-04-11 09:42:00,72.0,63.2,30.18,SSW,211,5.4,6.9,74,-99.99,,SCT031,-99.99,VWS V14.01,2013-04-11 13:42:00,
2013-04-11 09:44:00,72.1,62.2,30.18,SSE,168,5.8,6.3,71,-99.99,,SCT031,-99.99,VWS V14.01,2013-04-11 13:44:00,
2013-04-11 09:46:00,72.3,62.4,30.18,SSE,151,5.4,5.8,71,-99.99,,SCT031,-99.99,VWS V14.01,2013-04-11 13:46:00,
2013-04-11 09:48:00,72.7,62.7,30.18,South,182,0.0,4.5,71,-99.99,,SCT031,-99.99,VWS V14.01,2013-04-11 13:48:00,
2013-04-11 09:49:00,72.9,62.5,30.18,South,174,4.9,5.8,70,-99.99,,SCT031,-99.99,VWS V14.01,2013-04-11 13:49:00,
2013-04-11 09:51:00,73.2,62.5,30.18,ENE,68,2.7,5.4,69,-99.99,,SCT031,-99.99,VWS V14.01,2013-04-11 13:51:00,
2013-04-11 09:54:00,73.2,61.6,30.18,SSE,160,4.9,5.8,67,-99.99,,SCT031,-99.99,VWS V14.01,2013-04-11 13:54:00,
2013-04-11 09:55:00,73.2,61.2,30.18,South,175,6.7,6.7,66,-99.99,,SCT031,-99.99,VWS V14.01,2013-04-11 13:55:00,
2013-04-11 09:56:00,73.2,61.6,30.18,SSE,167,0.0,4.9,67,-99.99,,SCT031,-99.99,VWS V14.01,2013-04-11 13:56:00,
2013-04-11 09:59:00,73.6,62.0,30.18,NNW,331,2.7,3.6,67,-99.99,,,-99.99,VWS V14.01,2013-04-11 13:59:00,
2013-04-11 10:00:00,73.9,62.7,30.18,NNW,345,0.0,3.6,68,-99.99,,,-99.99,VWS V14.01,2013-04-11 14:00:00,
2013-04-11 10:03:00,74.3,62.6,30.18,ENE,78,0.0,0.0,67,-99.99,,,-99.99,VWS V14.01,2013-04-11 14:03:00,
2013-04-11 10:04:00,74.5,62.4,30.18,ENE,78,0.0,0.0,66,-99.99,,,-99.99,VWS V14.01,2013-04-11 14:04:00,
2013-04-11 10:05:00,74.5,61.5,30.18,SSW,212,0.0,2.7,64,-99.99,,,-99.99,VWS V14.01,2013-04-11 14:05:00,
2013-04-11 10:10:00,74.1,60.7,30.18,SSW,192,2.7,5.8,63,-99.99,,,-99.99,VWS V14.01,2013-04-11 14:10:00,
2013-04-11 10:12:00,74.3,61.3,30.18,West,266,0.0,4.9,64,-99.99,,,-99.99,VWS V14.01,2013-04-11 14:12:00,
2013-04-11 10:13:00,74.1,61.2,30.18,SW,224,4.0,5.8,64,-99.99,,,-99.99,VWS V14.01,2013-04-11 14:13:00,
2013-04-11 10:15:00,74.1,61.2,30.18,South,179,4.5,4.9,64,-99.99,,,-99.99,VWS V14.01,2013-04-11 14:15:00,
2013-04-11 10:17:00,73.8,59.9,30.18,South,187,5.4,5.4,62,-99.99,,,-99.99,VWS V14.01,2013-04-11 14:17:00,
2013-04-11 10:18:00,73.8,60.4,30.18,SE,131,3.6,3.6,63,-99.99,,,-99.99,VWS V14.01,2013-04-11 14:18:00,
2013-04-11 10:21:00,74.1,61.6,30.18,SSE,161,5.4,5.4,65,-99.99,,,-99.99,VWS V14.01,2013-04-11 14:21:00,
2013-04-11 10:23:00,74.3,61.3,30.18,South,169,0.0,4.0,64,-99.99,,,-99.99,VWS V14.01,2013-04-11 14:23:00,
2013-04-11 10:24:00,74.5,61.5,30.18,SSW,202,9.6,10.1,64,-99.99,,,-99.99,VWS V14.01,2013-04-11 14:24:00,
2013-04-11 10:27:00,75.2,61.3,30.18,South,180,4.9,7.4,62,-99.99,,,-99.99,VWS V14.01,2013-04-11 14:27:00,
2013-04-11 10:28:00,75.6,61.6,30.18,SSE,163,4.9,7.4,62,-99.99,,,-99.99,VWS V14.01,2013-04-11 14:28:00,
2013-04-11 10:31:00,76.1,60.3,30.18,SSE,166,8.7,10.5,58,-99.99,,,-99.99,VWS V14.01,2013-04-11 14:31:00,
2013-04-11 10:32:00,76.1,59.8,30.18,ESE,103,4.9,9.2,57,-99.99,,,-99.99,VWS V14.01,2013-04-11 14:32:00,
2013-04-11 10:34:00,76.1,59.3,30.18,SSE,156,4.0,4.5,56,-99.99,,,-99.99,VWS V14.01,2013-04-11 14:34:00,
2013-04-11 10:37:00,75.9,59.6,30.18,South,175,3.6,6.9,57,-99.99,,,-99.99,VWS V14.01,2013-04-11 14:37:00,
2013-04-11 10:38:00,76.3,60.4,30.18,SW,230,0.0,0.0,58,-99.99,,,-99.99,VWS V14.01,2013-04-11 14:38:00,
2013-04-11 10:39:00,76.5,60.6,30.18,SW,215,2.7,2.7,58,-99.99,,,-99.99,VWS V14.01,2013-04-11 14:39:00,
2013-04-11 10:40:00,76.8,60.9,30.18,SSE,156,2.7,4.9,58,-99.99,,,-99.99,VWS V14.01,2013-04-11 14:40:00,
2013-04-11 10:43:00,77.7,60.8,30.18,South,173,0.0,0.0,56,-99.99,,,-99.99,VWS V14.01,2013-04-11 14:43:00,
2013-04-11 10:44:00,78.1,60.1,30.18,South,187,0.0,0.0,54,-99.99,,,-99.99,VWS V14.01,2013-04-11 14:44:00,
2013-04-11 10:47:00,78.3,58.1,30.18,SE,139,0.0,0.0,50,-99.99,,,-99.99,VWS V14.01,2013-04-11 14:47:00,
2013-04-11 10:48:00,78.3,57.5,30.15,South,190,0.0,0.0,49,-99.99,,,-99.99,VWS V14.01,2013-04-11 14:48:00,
2013-04-11 10:49:00,78.3,58.1,30.15,SSW,203,0.0,0.0,50,-99.99,,,-99.99,VWS V14.01,2013-04-11 14:49:00,
2013-04-11 10:50:00,78.3,57.5,30.15,SSW,198,0.0,0.0,49,-99.99,,,-99.99,VWS V14.01,2013-04-11 14:50:00,
2013-04-11 10:52:00,78.3,57.5,30.15,South,191,0.0,0.0,49,-99.99,,,-99.99,VWS V14.01,2013-04-11 14:52:00,
2013-04-11 10:53:00,78.6,58.4,30.15,South,171,0.0,0.0,50,-99.99,,,-99.99,VWS V14.01,2013-04-11 14:53:00,
2013-04-11 10:55:00,79.0,58.8,30.15,SE,140,0.0,0.0,50,-99.99,,,-99.99,VWS V14.01,2013-04-11 14:55:00,
2013-04-11 10:57:00,79.9,58.5,30.15,SW,221,0.0,0.0,48,-99.99,,,-99.99,VWS V14.01,2013-04-11 14:57:00,
2013-04-11 10:59:00,80.2,57.6,30.15,South,170,0.0,0.0,46,-99.99,,,-99.99,VWS V14.01,2013-04-11 14:59:00,
2013-04-11 11:00:00,80.4,57.2,30.15,SSE,161,0.0,0.0,45,-99.99,,,-99.99,VWS V14.01,2013-04-11 15:00:00,
2013-04-11 11:01:00,80.4,57.2,30.15,South,170,0.0,0.0,45,-99.99,,,-99.99,VWS V14.01,2013-04-11 15:01:00,
2013-04-11 11:03:00,80.8,56.9,30.18,SSW,208,0.0,0.0,44,-99.99,,,-99.99,VWS V14.01,2013-04-11 15:03:00,
2013-04-11 11:04:00,80.6,56.1,30.18,South,174,0.0,0.0,43,-99.99,,,-99.99,VWS V14.01,2013-04-11 15:04:00,
2013-04-11 11:06:00,80.8,56.2,30.18,South,189,0.0,0.0,43,-99.99,,,-99.99,VWS V14.01,2013-04-11 15:06:00,
2013-04-11 11:07:00,80.2,56.4,30.18,South,175,4.0,6.9,44,-99.99,,,-99.99,VWS V14.01,2013-04-11 15:07:00,
2013-04-11 11:08:00,80.2,56.4,30.18,South,182,5.8,6.9,44,-99.99,,,-99.99,VWS V14.01,2013-04-11 15:08:00,
2013-04-11 11:10:00,80.2,57.0,30.18,SSE,154,0.0,0.0,45,-99.99,,,-99.99,VWS V14.01,2013-04-11 15:10:00,
2013-04-11 11:12:00,80.1,55.6,30.18,SW,229,4.0,4.0,43,-99.99,,,-99.99,VWS V14.01,2013-04-11 15:12:00,
2013-04-11 11:14:00,80.1,57.4,30.18,South,180,3.6,6.7,46,-99.99,,,-99.99,VWS V14.01,2013-04-11 15:14:00,
2013-04-11 11:16:00,80.4,57.8,30.18,SSE,168,0.0,4.5,46,-99.99,,,-99.99,VWS V14.01,2013-04-11 15:16:00,
2013-04-11 11:17:00,80.8,57.5,30.18,SW,222,0.0,0.0,45,-99.99,,,-99.99,VWS V14.01,2013-04-11 15:17:00,
2013-04-11 11:19:00,81.0,57.0,30.15,SSE,150,0.0,0.0,44,-99.99,,,-99.99,VWS V14.01,2013-04-11 15:19:00,
2013-04-11 11:21:00,81.3,56.7,30.15,SE,145,0.0,0.0,43,-99.99,,,-99.99,VWS V14.01,2013-04-11 15:21:00,
2013-04-11 11:22:00,81.3,56.1,30.15,SW,220,0.0,0.0,42,-99.99,,,-99.99,VWS V14.01,2013-04-11 15:22:00,
2013-04-11 11:26:00,81.5,54.9,30.15,SSE,163,8.7,9.6,40,-99.99,,,-99.99,VWS V14.01,2013-04-11 15:26:00,
2013-04-11 11:27:00,81.5,54.9,30.15,SSE,161,6.7,9.6,40,-99.99,,,-99.99,VWS V14.01,2013-04-11 15:27:00,
2013-04-11 11:31:00,81.7,55.0,30.15,SSE,161,0.0,0.0,40,-99.99,,,-99.99,VWS V14.01,2013-04-11 15:31:00,
2013-04-11 11:32:00,81.9,55.2,30.15,SW,228,0.0,0.0,40,-99.99,,,-99.99,VWS V14.01,2013-04-11 15:32:00,
2013-04-11 11:33:00,81.9,55.2,30.15,WSW,250,0.0,0.0,40,-99.99,,,-99.99,VWS V14.01,2013-04-11 15:33:00,
2013-04-11 11:37:00,82.0,55.4,30.15,ENE,69,0.0,0.0,40,-99.99,,,-99.99,VWS V14.01,2013-04-11 15:37:00,
2013-04-11 11:38:00,82.0,54.7,30.15,SSE,152,0.0,0.0,39,-99.99,,,-99.99,VWS V14.01,2013-04-11 15:38:00,
2013-04-11 11:43:00,81.3,55.4,30.15,South,171,0.0,0.0,41,-99.99,,,-99.99,VWS V14.01,2013-04-11 15:43:00,
2013-04-11 11:44:00,81.3,55.4,30.15,West,260,0.0,0.0,41,-99.99,,,-99.99,VWS V14.01,2013-04-11 15:44:00,
2013-04-11 11:45:00,81.7,55.7,30.15,SSW,193,0.0,0.0,41,-99.99,,,-99.99,VWS V14.01,2013-04-11 15:45:00,
2013-04-11 11:48:00,82.2,55.5,30.15,SSW,194,0.0,0.0,40,-99.99,,,-99.99,VWS V14.01,2013-04-11 15:48:00,
2013-04-11 11:49:00,82.4,55.0,30.15,SE,145,0.0,0.0,39,-99.99,,,-99.99,VWS V14.01,2013-04-11 15:49:00,
2013-04-11 11:50:00,82.4,55.0,30.15,SSE,153,0.0,0.0,39,-99.99,,,-99.99,VWS V14.01,2013-04-11 15:50:00,
2013-04-11 11:54:00,83.3,56.5,30.15,SSW,201,0.0,0.0,40,-99.99,,,-99.99,VWS V14.01,2013-04-11 15:54:00,
2013-04-11 11:55:00,83.5,55.2,30.15,SSW,196,0.0,0.0,38,-99.99,,,-99.99,VWS V14.01,2013-04-11 15:55:00,
2013-04-11 11:56:00,83.5,55.2,30.15,SE,132,0.0,0.0,38,-99.99,,,-99.99,VWS V14.01,2013-04-11 15:56:00,
2013-04-11 11:59:00,83.1,54.2,30.15,NE,53,0.0,0.0,37,-99.99,,BKN055,-99.99,VWS V14.01,2013-04-11 15:59:00,
2013-04-11 12:01:00,82.2,54.1,30.15,East,94,0.0,0.0,38,-99.99,,BKN055,-99.99,VWS V14.01,2013-04-11 16:01:00,
2013-04-11 12:02:00,81.5,53.5,30.15,North,1,0.0,0.0,38,-99.99,,BKN055,-99.99,VWS V14.01,2013-04-11 16:02:00,
2013-04-11 12:04:00,81.0,54.4,30.15,South,186,8.3,8.7,40,-99.99,,BKN055,-99.99,VWS V14.01,2013-04-11 16:04:00,
2013-04-11 12:05:00,80.4,54.6,30.15,South,190,5.8,5.8,41,-99.99,,BKN055,-99.99,VWS V14.01,2013-04-11 16:05:00,
2013-04-11 12:06:00,80.2,55.1,30.15,SSE,165,0.0,0.0,42,-99.99,,BKN055,-99.99,VWS V14.01,2013-04-11 16:06:00,
2013-04-11 12:08:00,80.2,55.1,30.15,NNE,21,3.6,3.6,42,-99.99,,BKN055,-99.99,VWS V14.01,2013-04-11 16:08:00,
2013-04-11 12:09:00,80.2,55.1,30.15,NNE,21,0.0,4.9,42,-99.99,,BKN055,-99.99,VWS V14.01,2013-04-11 16:09:00,
2013-04-11 12:11:00,80.1,54.9,30.15,SW,231,3.6,7.8,42,-99.99,,BKN055,-99.99,VWS V14.01,2013-04-11 16:11:00,
2013-04-11 12:13:00,80.1,55.6,30.15,WSW,253,2.7,5.8,43,-99.99,,BKN055,-99.99,VWS V14.01,2013-04-11 16:13:00,
2013-04-11 12:14:00,80.1,54.9,30.15,SW,221,4.9,7.8,42,-99.99,,BKN055,-99.99,VWS V14.01,2013-04-11 16:14:00,
2013-04-11 12:17:00,80.1,54.9,30.15,SW,228,0.0,0.0,42,-99.99,,BKN055,-99.99,VWS V14.01,2013-04-11 16:17:00,
2013-04-11 12:19:00,80.6,56.1,30.15,SSE,147,0.0,0.0,43,-99.99,,BKN055,-99.99,VWS V14.01,2013-04-11 16:19:00,
2013-04-11 12:20:00,80.6,55.4,30.15,West,270,0.0,0.0,42,-99.99,,BKN055,-99.99,VWS V14.01,2013-04-11 16:20:00,
2013-04-11 12:23:00,81.3,55.4,30.15,NNW,347,0.0,0.0,41,-99.99,,BKN055,-99.99,VWS V14.01,2013-04-11 16:23:00,
2013-04-11 12:25:00,81.5,55.5,30.15,SE,133,0.0,0.0,41,-99.99,,BKN055,-99.99,VWS V14.01,2013-04-11 16:25:00,
2013-04-11 12:28:00,82.4,55.7,30.15,WSW,243,0.0,0.0,40,-99.99,,BKN055,-99.99,VWS V14.01,2013-04-11 16:28:00,
2013-04-11 12:30:00,82.6,55.1,30.15,SSE,156,0.0,0.0,39,-99.99,,BKN055,-99.99,VWS V14.01,2013-04-11 16:30:00,
2013-04-11 12:31:00,82.6,55.1,30.15,SE,124,0.0,0.0,39,-99.99,,BKN055,-99.99,VWS V14.01,2013-04-11 16:31:00,
2013-04-11 12:33:00,82.6,53.7,30.12,SSE,166,0.0,0.0,37,-99.99,,BKN055,-99.99,VWS V14.01,2013-04-11 16:33:00,
2013-04-11 12:34:00,82.6,54.4,30.12,South,173,0.0,0.0,38,-99.99,,BKN055,-99.99,VWS V14.01,2013-04-11 16:34:00,
2013-04-11 12:35:00,82.8,55.3,30.12,SSE,165,0.0,0.0,39,-99.99,,BKN055,-99.99,VWS V14.01,2013-04-11 16:35:00,
2013-04-11 12:38:00,83.7,55.4,30.12,SSW,203,0.0,0.0,38,-99.99,,BKN055,-99.99,VWS V14.01,2013-04-11 16:38:00,
2013-04-11 12:40:00,84.0,55.0,30.12,SW,229,0.0,0.0,37,-99.99,,BKN055,-99.99,VWS V14.01,2013-04-11 16:40:00,
2013-04-11 12:43:00,85.1,55.9,30.12,SW,223,0.0,0.0,37,-99.99,,BKN055,-99.99,VWS V14.01,2013-04-11 16:43:00,
2013-04-11 12:45:00,85.5,55.5,30.12,NNW,342,0.0,0.0,36,-99.99,,BKN055,-99.99,VWS V14.01,2013-04-11 16:45:00,
2013-04-11 12:48:00,84.9,52.6,30.12,SW,234,0.0,0.0,33,-99.99,,BKN055,-99.99,VWS V14.01,2013-04-11 16:48:00,
2013-04-11 12:50:00,84.0,53.5,30.12,NE,43,0.0,0.0,35,-99.99,,BKN055,-99.99,VWS V14.01,2013-04-11 16:50:00,
2013-04-11 12:53:00,84.0,55.7,30.12,SW,218,0.0,0.0,38,-99.99,,BKN055,-99.99,VWS V14.01,2013-04-11 16:53:00,
2013-04-11 12:56:00,84.7,54.1,30.12,SW,214,0.0,0.0,35,-99.99,,BKN055,-99.99,VWS V14.01,2013-04-11 16:56:00,
2013-04-11 12:57:00,84.7,53.3,30.12,SE,132,0.0,0.0,34,-99.99,,BKN055,-99.99,VWS V14.01,2013-04-11 16:57:00,
2013-04-11 12:58:00,84.6,53.1,30.12,SW,220,0.0,0.0,34,-99.99,,BKN048,-99.99,VWS V14.01,2013-04-11 16:58:00,
2013-04-11 13:00:00,84.2,52.0,30.12,SSW,205,0.0,0.0,33,-99.99,,BKN048,-99.99,VWS V14.01,2013-04-11 17:00:00,
2013-04-11 13:02:00,84.0,52.7,30.12,SW,217,0.0,4.5,34,-99.99,,BKN048,-99.99,VWS V14.01,2013-04-11 17:02:00,
2013-04-11 13:03:00,83.7,52.3,30.12,SW,223,0.0,0.0,34,-99.99,,BKN048,-99.99,VWS V14.01,2013-04-11 17:03:00,
2013-04-11 13:06:00,83.5,53.8,30.12,SSW,198,0.0,0.0,36,-99.99,,BKN048,-99.99,VWS V14.01,2013-04-11 17:06:00,
2013-04-11 13:07:00,83.5,53.0,30.12,South,175,0.0,0.0,35,-99.99,,BKN048,-99.99,VWS V14.01,2013-04-11 17:07:00,
2013-04-11 13:08:00,83.5,53.0,30.12,South,173,0.0,0.0,35,-99.99,,BKN048,-99.99,VWS V14.01,2013-04-11 17:08:00,
2013-04-11 13:11:00,83.3,52.0,30.12,SSW,200,0.0,0.0,34,-99.99,,BKN048,-99.99,VWS V14.01,2013-04-11 17:11:00,
2013-04-11 13:12:00,83.3,52.0,30.12,SSE,167,0.0,0.0,34,-99.99,,BKN048,-99.99,VWS V14.01,2013-04-11 17:12:00,
2013-04-11 13:13:00,83.1,51.9,30.12,South,178,0.0,0.0,34,-99.99,,BKN048,-99.99,VWS V14.01,2013-04-11 17:13:00,
2013-04-11 13:17:00,83.7,53.9,30.12,West,270,0.0,0.0,36,-99.99,,BKN048,-99.99,VWS V14.01,2013-04-11 17:17:00,
2013-04-11 13:18:00,84.2,52.8,30.09,SSE,167,0.0,0.0,34,-99.99,,BKN048,-99.99,VWS V14.01,2013-04-11 17:18:00,
2013-04-11 13:19:00,84.2,52.8,30.09,SSE,151,0.0,0.0,34,-99.99,,BKN048,-99.99,VWS V14.01,2013-04-11 17:19:00,
2013-04-11 13:23:00,84.9,51.8,30.09,SE,131,0.0,0.0,32,-99.99,,BKN048,-99.99,VWS V14.01,2013-04-11 17:23:00,
2013-04-11 13:24:00,85.3,52.1,30.09,SW,214,0.0,0.0,32,-99.99,,BKN048,-99.99,VWS V14.01,2013-04-11 17:24:00,
2013-04-11 13:25:00,85.3,51.2,30.09,South,176,0.0,0.0,31,-99.99,,BKN048,-99.99,VWS V14.01,2013-04-11 17:25:00,
2013-04-11 13:29:00,85.3,51.2,30.09,SSW,210,0.0,0.0,31,-99.99,,BKN048,-99.99,VWS V14.01,2013-04-11 17:29:00,
2013-04-11 13:30:00,85.3,50.4,30.09,SSE,162,0.0,0.0,30,-99.99,,BKN048,-99.99,VWS V14.01,2013-04-11 17:30:00,
2013-04-11 13:32:00,85.1,50.2,30.09,SE,130,0.0,0.0,30,-99.99,,BKN048,-99.99,VWS V14.01,2013-04-11 17:32:00,
2013-04-11 13:34:00,84.6,49.8,30.09,SW,228,0.0,0.0,30,-99.99,,BKN048,-99.99,VWS V14.01,2013-04-11 17:34:00,
2013-04-11 13:35:00,84.4,49.6,30.09,SSW,200,0.0,0.0,30,-99.99,,BKN048,-99.99,VWS V14.01,2013-04-11 17:35:00,
2013-04-11 13:38:00,84.6,50.6,30.09,South,187,0.0,0.0,31,-99.99,,BKN048,-99.99,VWS V14.01,2013-04-11 17:38:00,
2013-04-11 13:39:00,84.7,50.8,30.09,SSE,159,0.0,0.0,31,-99.99,,BKN048,-99.99,VWS V14.01,2013-04-11 17:39:00,
2013-04-11 13:40:00,84.9,51.8,30.09,SE,143,0.0,0.0,32,-99.99,,BKN048,-99.99,VWS V14.01,2013-04-11 17:40:00,
2013-04-11 13:43:00,85.5,51.4,30.09,SSE,167,0.0,0.0,31,-99.99,,BKN048,-99.99,VWS V14.01,2013-04-11 17:43:00,
2013-04-11 13:44:00,85.8,51.7,30.09,SSE,157,0.0,0.0,31,-99.99,,BKN048,-99.99,VWS V14.01,2013-04-11 17:44:00,
2013-04-11 13:45:00,86.2,51.1,30.09,NNE,31,0.0,0.0,30,-99.99,,BKN048,-99.99,VWS V14.01,2013-04-11 17:45:00,
2013-04-11 13:48:00,86.4,51.3,30.09,WSW,251,0.0,0.0,30,-99.99,,BKN048,-99.99,VWS V14.01,2013-04-11 17:48:00,
2013-04-11 13:49:00,86.5,51.5,30.09,SSW,203,0.0,0.0,30,-99.99,,BKN048,-99.99,VWS V14.01,2013-04-11 17:49:00,
2013-04-11 13:50:00,86.5,50.5,30.09,South,181,3.6,3.6,29,-99.99,,BKN048,-99.99,VWS V14.01,2013-04-11 17:50:00,
2013-04-11 13:52:00,86.2,50.2,30.09,North,351,0.0,0.0,29,-99.99,,BKN048,-99.99,VWS V14.01,2013-04-11 17:52:00,
2013-04-11 13:54:00,85.5,49.6,30.09,NNW,345,0.0,0.0,29,-99.99,,BKN048,-99.99,VWS V14.01,2013-04-11 17:54:00,
2013-04-11 13:55:00,85.1,50.2,30.09,SSW,199,0.0,0.0,30,-99.99,,BKN048,-99.99,VWS V14.01,2013-04-11 17:55:00,
2013-04-11 13:59:00,84.4,50.5,30.09,South,185,0.0,0.0,31,-99.99,,BKN060,-99.99,VWS V14.01,2013-04-11 17:59:00,
2013-04-11 14:00:00,84.4,50.5,30.09,SW,222,0.0,0.0,31,-99.99,,BKN060,-99.99,VWS V14.01,2013-04-11 18:00:00,
2013-04-11 14:04:00,84.6,51.5,30.09,SSE,166,0.0,0.0,32,-99.99,,BKN060,-99.99,VWS V14.01,2013-04-11 18:04:00,
2013-04-11 14:05:00,84.7,52.5,30.09,South,178,0.0,0.0,33,-99.99,,BKN060,-99.99,VWS V14.01,2013-04-11 18:05:00,
2013-04-11 14:10:00,85.8,50.8,30.09,SE,135,0.0,0.0,30,-99.99,,BKN060,-99.99,VWS V14.01,2013-04-11 18:10:00,
2013-04-11 14:12:00,85.8,50.8,30.09,NNE,16,0.0,0.0,30,-99.99,,BKN060,-99.99,VWS V14.01,2013-04-11 18:12:00,
2013-04-11 14:15:00,86.2,51.1,30.09,SSW,201,0.0,0.0,30,-99.99,,BKN060,-99.99,VWS V14.01,2013-04-11 18:15:00,
2013-04-11 14:16:00,86.2,51.1,30.09,North,356,0.0,0.0,30,-99.99,,BKN060,-99.99,VWS V14.01,2013-04-11 18:16:00,
2013-04-11 14:18:00,86.4,52.2,30.09,SW,225,0.0,0.0,31,-99.99,,BKN060,-99.99,VWS V14.01,2013-04-11 18:18:00,
2013-04-11 14:20:00,86.5,51.5,30.09,West,275,0.0,0.0,30,-99.99,,BKN060,-99.99,VWS V14.01,2013-04-11 18:20:00,
2013-04-11 14:21:00,86.7,52.5,30.09,SSE,159,0.0,0.0,31,-99.99,,BKN060,-99.99,VWS V14.01,2013-04-11 18:21:00,
2013-04-11 14:22:00,86.7,51.6,30.09,South,184,0.0,0.0,30,-99.99,,BKN060,-99.99,VWS V14.01,2013-04-11 18:22:00,
2013-04-11 14:25:00,86.9,50.8,30.09,SW,222,0.0,0.0,29,-99.99,,BKN060,-99.99,VWS V14.01,2013-04-11 18:25:00,
2013-04-11 14:27:00,86.5,50.5,30.09,SSW,209,0.0,0.0,29,-99.99,,BKN060,-99.99,VWS V14.01,2013-04-11 18:27:00,
2013-04-11 14:32:00,84.7,49.9,30.09,South,172,0.0,0.0,30,-99.99,,BKN060,-99.99,VWS V14.01,2013-04-11 18:32:00,
2013-04-11 14:33:00,84.9,50.9,30.06,SSE,156,0.0,0.0,31,-99.99,,BKN060,-99.99,VWS V14.01,2013-04-11 18:33:00,
2013-04-11 14:37:00,86.0,51.9,30.06,South,170,0.0,0.0,31,-99.99,,BKN060,-99.99,VWS V14.01,2013-04-11 18:37:00,
2013-04-11 14:38:00,86.4,51.3,30.06,South,189,0.0,0.0,30,-99.99,,BKN060,-99.99,VWS V14.01,2013-04-11 18:38:00,
2013-04-11 14:40:00,87.3,51.2,30.06,WNW,287,0.0,0.0,29,-99.99,,BKN060,-99.99,VWS V14.01,2013-04-11 18:40:00,
2013-04-11 14:42:00,87.8,51.6,30.06,South,169,0.0,0.0,29,-99.99,,BKN060,-99.99,VWS V14.01,2013-04-11 18:42:00,
2013-04-11 14:43:00,87.8,50.7,30.06,South,170,0.0,0.0,28,-99.99,,BKN060,-99.99,VWS V14.01,2013-04-11 18:43:00,
2013-04-11 14:44:00,87.8,50.7,30.06,South,187,0.0,0.0,28,-99.99,,BKN060,-99.99,VWS V14.01,2013-04-11 18:44:00,
2013-04-11 14:46:00,88.2,51.9,30.06,SSE,158,0.0,0.0,29,-99.99,,BKN060,-99.99,VWS V14.01,2013-04-11 18:46:00,
2013-04-11 14:48:00,88.3,51.1,30.06,South,169,0.0,0.0,28,-99.99,,BKN060,-99.99,VWS V14.01,2013-04-11 18:48:00,
2013-04-11 14:49:00,88.3,51.1,30.06,South,185,0.0,0.0,28,-99.99,,BKN060,-99.99,VWS V14.01,2013-04-11 18:49:00,
2013-04-11 14:52:00,88.0,50.8,30.06,NW,321,0.0,0.0,28,-99.99,,BKN060,-99.99,VWS V14.01,2013-04-11 18:52:00,
2013-04-11 14:53:00,87.8,50.7,30.06,WNW,282,0.0,0.0,28,-99.99,,BKN060,-99.99,VWS V14.01,2013-04-11 18:53:00,
2013-04-11 14:54:00,87.4,50.4,30.06,ESE,116,0.0,0.0,28,-99.99,,BKN060,-99.99,VWS V14.01,2013-04-11 18:54:00,
2013-04-11 14:56:00,87.1,51.0,30.06,SSW,210,0.0,0.0,29,-99.99,,BKN060,-99.99,VWS V14.01,2013-04-11 18:56:00,
2013-04-11 14:58:00,87.1,50.1,30.06,SSW,208,0.0,0.0,28,-99.99,,BKN070,-99.99,VWS V14.01,2013-04-11 18:58:00,
2013-04-11 14:59:00,87.1,50.1,30.06,SSW,210,0.0,0.0,28,-99.99,,BKN070,-99.99,VWS V14.01,2013-04-11 18:59:00,
2013-04-11 15:02:00,87.1,50.1,30.06,South,186,0.0,0.0,28,-99.99,,BKN070,-99.99,VWS V14.01,2013-04-11 19:02:00,
2013-04-11 15:03:00,87.1,50.1,30.06,WSW,246,0.0,0.0,28,-99.99,,BKN070,-99.99,VWS V14.01,2013-04-11 19:03:00,
2013-04-11 15:04:00,86.9,49.9,30.06,SSE,158,0.0,0.0,28,-99.99,,BKN070,-99.99,VWS V14.01,2013-04-11 19:04:00,
2013-04-11 15:08:00,85.8,50.8,30.06,South,191,0.0,0.0,30,-99.99,,BKN070,-99.99,VWS V14.01,2013-04-11 19:08:00,
2013-04-11 15:09:00,86.0,50.1,30.06,SSW,209,0.0,0.0,29,-99.99,,BKN070,-99.99,VWS V14.01,2013-04-11 19:09:00,
2013-04-11 15:11:00,86.2,51.1,30.06,ESE,112,0.0,0.0,30,-99.99,,BKN070,-99.99,VWS V14.01,2013-04-11 19:11:00,
2013-04-11 15:13:00,86.0,50.1,30.06,ESE,108,0.0,0.0,29,-99.99,,BKN070,-99.99,VWS V14.01,2013-04-11 19:13:00,
2013-04-11 15:14:00,86.0,51.0,30.06,SE,137,0.0,0.0,30,-99.99,,BKN070,-99.99,VWS V14.01,2013-04-11 19:14:00,
2013-04-11 15:15:00,86.0,51.0,30.06,SW,223,0.0,0.0,30,-99.99,,BKN070,-99.99,VWS V14.01,2013-04-11 19:15:00,
2013-04-11 15:17:00,86.0,50.1,30.06,SSW,210,0.0,0.0,29,-99.99,,BKN070,-99.99,VWS V14.01,2013-04-11 19:17:00,
2013-04-11 15:20:00,86.0,51.0,30.06,South,190,0.0,0.0,30,-99.99,,BKN070,-99.99,VWS V14.01,2013-04-11 19:20:00,
2013-04-11 15:23:00,86.0,51.0,30.06,West,267,0.0,0.0,30,-99.99,,BKN070,-99.99,VWS V14.01,2013-04-11 19:23:00,
2013-04-11 15:25:00,86.0,51.0,30.06,SSE,147,0.0,0.0,30,-99.99,,BKN070,-99.99,VWS V14.01,2013-04-11 19:25:00,
2013-04-11 15:26:00,85.8,50.8,30.06,SSE,168,0.0,0.0,30,-99.99,,BKN070,-99.99,VWS V14.01,2013-04-11 19:26:00,
2013-04-11 15:27:00,85.8,50.8,30.06,NW,323,0.0,0.0,30,-99.99,,BKN070,-99.99,VWS V14.01,2013-04-11 19:27:00,
2013-04-11 15:28:00,85.6,50.7,30.06,South,172,0.0,0.0,30,-99.99,,BKN070,-99.99,VWS V14.01,2013-04-11 19:28:00,
2013-04-11 15:31:00,85.3,50.4,30.06,South,179,0.0,0.0,30,-99.99,,BKN070,-99.99,VWS V14.01,2013-04-11 19:31:00,
2013-04-11 15:32:00,85.1,51.1,30.03,South,187,0.0,0.0,31,-99.99,,BKN070,-99.99,VWS V14.01,2013-04-11 19:32:00,
2013-04-11 15:33:00,85.1,51.1,30.03,South,187,0.0,0.0,31,-99.99,,BKN070,-99.99,VWS V14.01,2013-04-11 19:33:00,
2013-04-11 15:37:00,84.6,49.8,30.03,East,92,0.0,0.0,30,-99.99,,BKN070,-99.99,VWS V14.01,2013-04-11 19:37:00,
2013-04-11 15:38:00,84.0,49.3,30.03,ESE,105,0.0,0.0,30,-99.99,,BKN070,-99.99,VWS V14.01,2013-04-11 19:38:00,
2013-04-11 15:39:00,83.8,50.0,30.03,WSW,245,0.0,0.0,31,-99.99,,BKN070,-99.99,VWS V14.01,2013-04-11 19:39:00,
2013-04-11 15:40:00,83.8,50.0,30.03,South,173,0.0,0.0,31,-99.99,,BKN070,-99.99,VWS V14.01,2013-04-11 19:40:00,
2013-04-11 15:42:00,83.7,50.7,30.03,South,191,0.0,0.0,32,-99.99,,BKN070,-99.99,VWS V14.01,2013-04-11 19:42:00,
2013-04-11 15:43:00,83.7,50.7,30.03,South,172,0.0,0.0,32,-99.99,,BKN070,-99.99,VWS V14.01,2013-04-11 19:43:00,
2013-04-11 15:44:00,83.7,51.5,30.03,South,191,0.0,0.0,33,-99.99,,BKN070,-99.99,VWS V14.01,2013-04-11 19:44:00,
2013-04-11 15:45:00,83.8,51.7,30.03,South,189,0.0,0.0,33,-99.99,,BKN070,-99.99,VWS V14.01,2013-04-11 19:45:00,
2013-04-11 15:48:00,84.0,51.8,30.03,South,172,0.0,0.0,33,-99.99,,BKN070,-99.99,VWS V14.01,2013-04-11 19:48:00,
2013-04-11 15:50:00,84.2,51.2,30.03,South,173,0.0,0.0,32,-99.99,,BKN070,-99.99,VWS V14.01,2013-04-11 19:50:00,
2013-04-11 15:51:00,84.2,51.2,30.03,South,169,0.0,0.0,32,-99.99,,BKN070,-99.99,VWS V14.01,2013-04-11 19:51:00,
2013-04-11 15:54:00,84.4,51.3,30.03,SSW,196,0.0,0.0,32,-99.99,,BKN070,-99.99,VWS V14.01,2013-04-11 19:54:00,
2013-04-11 15:56:00,84.6,52.3,30.03,South,170,0.0,0.0,33,-99.99,,BKN070,-99.99,VWS V14.01,2013-04-11 19:56:00,
2013-04-11 15:58:00,84.7,51.6,30.03,South,170,0.0,0.0,32,-99.99,,CLR,-99.99,VWS V14.01,2013-04-11 19:58:00,
2013-04-11 15:59:00,84.7,51.6,30.03,South,179,0.0,0.0,32,-99.99,,CLR,-99.99,VWS V14.01,2013-04-11 19:59:00,
2013-04-11 16:00:00,84.7,51.6,30.03,South,179,0.0,0.0,32,-99.99,,CLR,-99.99,VWS V14.01,2013-04-11 20:00:00,
2013-04-11 16:02:00,84.6,50.6,30.03,SSE,147,0.0,0.0,31,-99.99,,CLR,-99.99,VWS V14.01,2013-04-11 20:02:00,
2013-04-11 16:03:00,84.6,50.6,30.03,SSW,194,0.0,0.0,31,-99.99,,CLR,-99.99,VWS V14.01,2013-04-11 20:03:00,
2013-04-11 16:05:00,84.4,50.5,30.03,SSW,192,0.0,0.0,31,-99.99,,CLR,-99.99,VWS V14.01,2013-04-11 20:05:00,
2013-04-11 16:07:00,84.4,51.3,30.03,South,176,0.0,0.0,32,-99.99,,CLR,-99.99,VWS V14.01,2013-04-11 20:07:00,
2013-04-11 16:08:00,84.4,50.5,30.03,South,170,0.0,0.0,31,-99.99,,CLR,-99.99,VWS V14.01,2013-04-11 20:08:00,
2013-04-11 16:10:00,84.0,50.2,30.03,SSE,159,0.0,0.0,31,-99.99,,CLR,-99.99,VWS V14.01,2013-04-11 20:10:00,
2013-04-11 16:13:00,83.8,50.0,30.03,South,178,0.0,0.0,31,-99.99,,CLR,-99.99,VWS V14.01,2013-04-11 20:13:00,
2013-04-11 16:15:00,83.8,50.9,30.03,SSE,151,0.0,0.0,32,-99.99,,CLR,-99.99,VWS V14.01,2013-04-11 20:15:00,
2013-04-11 16:16:00,84.0,51.0,30.03,SSE,151,0.0,0.0,32,-99.99,,CLR,-99.99,VWS V14.01,2013-04-11 20:16:00,
2013-04-11 16:18:00,84.0,51.0,30.00,SSW,208,0.0,0.0,32,-99.99,,CLR,-99.99,VWS V14.01,2013-04-11 20:18:00,
2013-04-11 16:20:00,84.2,50.3,30.00,SSE,151,0.0,0.0,31,-99.99,,CLR,-99.99,VWS V14.01,2013-04-11 20:20:00,
2013-04-11 16:21:00,84.0,50.2,30.00,SSW,195,0.0,0.0,31,-99.99,,CLR,-99.99,VWS V14.01,2013-04-11 20:21:00,
2013-04-11 16:22:00,84.0,50.2,30.00,South,172,0.0,0.0,31,-99.99,,CLR,-99.99,VWS V14.01,2013-04-11 20:22:00,
2013-04-11 16:23:00,83.8,50.0,30.00,South,190,0.0,0.0,31,-99.99,,CLR,-99.99,VWS V14.01,2013-04-11 20:23:00,
2013-04-11 16:25:00,83.8,50.0,30.00,SW,216,0.0,0.0,31,-99.99,,CLR,-99.99,VWS V14.01,2013-04-11 20:25:00,
2013-04-11 16:27:00,83.8,50.0,30.00,SSW,203,0.0,0.0,31,-99.99,,CLR,-99.99,VWS V14.01,2013-04-11 20:27:00,
2013-04-11 16:28:00,83.8,50.0,30.00,South,181,0.0,0.0,31,-99.99,,CLR,-99.99,VWS V14.01,2013-04-11 20:28:00,
2013-04-11 16:29:00,84.0,50.2,30.00,SE,135,0.0,0.0,31,-99.99,,CLR,-99.99,VWS V14.01,2013-04-11 20:29:00,
2013-04-11 16:30:00,84.0,50.2,30.00,South,191,0.0,0.0,31,-99.99,,CLR,-99.99,VWS V14.01,2013-04-11 20:30:00,
2013-04-11 16:32:00,84.4,50.5,30.00,SW,219,0.0,0.0,31,-99.99,,CLR,-99.99,VWS V14.01,2013-04-11 20:32:00,
2013-04-11 16:33:00,84.6,50.6,30.00,SSE,148,0.0,0.0,31,-99.99,,CLR,-99.99,VWS V14.01,2013-04-11 20:33:00,
2013-04-11 16:35:00,84.7,50.8,30.00,South,174,0.0,0.0,31,-99.99,,CLR,-99.99,VWS V14.01,2013-04-11 20:35:00,
2013-04-11 16:37:00,84.9,50.1,30.00,SE,140,0.0,0.0,30,-99.99,,CLR,-99.99,VWS V14.01,2013-04-11 20:37:00,
2013-04-11 16:39:00,84.9,50.1,30.00,SSW,198,0.0,0.0,30,-99.99,,CLR,-99.99,VWS V14.01,2013-04-11 20:39:00,
2013-04-11 16:41:00,84.7,50.8,30.00,South,170,0.0,0.0,31,-99.99,,CLR,-99.99,VWS V14.01,2013-04-11 20:41:00,
2013-04-11 16:42:00,84.7,50.8,30.00,SW,227,0.0,0.0,31,-99.99,,CLR,-99.99,VWS V14.01,2013-04-11 20:42:00,
2013-04-11 16:44:00,84.6,50.6,30.00,SSE,153,0.0,0.0,31,-99.99,,CLR,-99.99,VWS V14.01,2013-04-11 20:44:00,
2013-04-11 16:46:00,84.2,50.3,30.00,South,176,0.0,0.0,31,-99.99,,CLR,-99.99,VWS V14.01,2013-04-11 20:46:00,
2013-04-11 16:47:00,84.0,50.2,30.00,SSE,149,0.0,0.0,31,-99.99,,CLR,-99.99,VWS V14.01,2013-04-11 20:47:00,
2013-04-11 16:49:00,83.7,49.8,30.00,SSW,196,0.0,0.0,31,-99.99,,CLR,-99.99,VWS V14.01,2013-04-11 20:49:00,
2013-04-11 16:52:00,83.3,50.4,30.00,SW,224,0.0,0.0,32,-99.99,,CLR,-99.99,VWS V14.01,2013-04-11 20:52:00,
2013-04-11 16:53:00,83.3,50.4,30.00,SSW,202,0.0,0.0,32,-99.99,,CLR,-99.99,VWS V14.01,2013-04-11 20:53:00,
2013-04-11 16:55:00,82.9,50.9,30.00,SSE,149,0.0,0.0,33,-99.99,,CLR,-99.99,VWS V14.01,2013-04-11 20:55:00,
2013-04-11 16:57:00,82.8,50.8,30.00,SSE,164,0.0,0.0,33,-99.99,,CLR,-99.99,VWS V14.01,2013-04-11 20:57:00,
2013-04-11 16:58:00,82.6,50.6,30.00,East,101,0.0,0.0,33,-99.99,,SCT070,-99.99,VWS V14.01,2013-04-11 20:58:00,
2013-04-11 16:59:00,82.6,50.6,30.00,SW,221,0.0,0.0,33,-99.99,,SCT070,-99.99,VWS V14.01,2013-04-11 20:59:00,
2013-04-11 17:00:00,82.6,51.4,30.00,SSW,194,0.0,0.0,34,-99.99,,SCT070,-99.99,VWS V14.01,2013-04-11 21:00:00,
2013-04-11 17:02:00,82.6,51.4,30.00,SW,222,0.0,0.0,34,-99.99,,SCT070,-99.99,VWS V14.01,2013-04-11 21:02:00,
2013-04-11 17:04:00,82.8,51.6,30.00,SSW,201,0.0,0.0,34,-99.99,,SCT070,-99.99,VWS V14.01,2013-04-11 21:04:00,
2013-04-11 17:07:00,82.9,51.7,30.00,SSE,159,0.0,0.0,34,-99.99,,SCT070,-99.99,VWS V14.01,2013-04-11 21:07:00,
2013-04-11 17:08:00,83.1,51.9,30.00,SSE,159,0.0,0.0,34,-99.99,,SCT070,-99.99,VWS V14.01,2013-04-11 21:08:00,
2013-04-11 17:09:00,83.1,51.9,30.00,SSW,211,0.0,0.0,34,-99.99,,SCT070,-99.99,VWS V14.01,2013-04-11 21:09:00,
2013-04-11 17:10:00,83.1,51.1,30.00,SSE,149,0.0,0.0,33,-99.99,,SCT070,-99.99,VWS V14.01,2013-04-11 21:10:00,
2013-04-11 17:13:00,83.1,51.1,30.00,SSE,155,0.0,0.0,33,-99.99,,SCT070,-99.99,VWS V14.01,2013-04-11 21:13:00,
2013-04-11 17:15:00,83.1,51.1,30.00,SE,132,0.0,0.0,33,-99.99,,SCT070,-99.99,VWS V14.01,2013-04-11 21:15:00,
2013-04-11 17:18:00,83.1,51.1,30.00,SE,146,0.0,0.0,33,-99.99,,SCT070,-99.99,VWS V14.01,2013-04-11 21:18:00,
2013-04-11 17:19:00,83.1,51.1,30.00,SW,220,0.0,0.0,33,-99.99,,SCT070,-99.99,VWS V14.01,2013-04-11 21:19:00,
2013-04-11 17:20:00,82.9,50.9,30.00,South,179,0.0,0.0,33,-99.99,,SCT070,-99.99,VWS V14.01,2013-04-11 21:20:00,
2013-04-11 17:22:00,82.8,49.9,30.00,SW,226,0.0,0.0,32,-99.99,,SCT070,-99.99,VWS V14.01,2013-04-11 21:22:00,
2013-04-11 17:24:00,82.6,50.6,30.00,South,191,0.0,0.0,33,-99.99,,SCT070,-99.99,VWS V14.01,2013-04-11 21:24:00,
2013-04-11 17:25:00,82.6,50.6,30.00,South,176,0.0,0.0,33,-99.99,,SCT070,-99.99,VWS V14.01,2013-04-11 21:25:00,
2013-04-11 17:27:00,82.4,50.4,30.00,South,174,0.0,0.0,33,-99.99,,SCT070,-99.99,VWS V14.01,2013-04-11 21:27:00,
2013-04-11 17:29:00,82.2,50.3,30.00,South,191,0.0,0.0,33,-99.99,,SCT070,-99.99,VWS V14.01,2013-04-11 21:29:00,
2013-04-11 17:30:00,81.9,50.0,30.00,South,182,0.0,0.0,33,-99.99,,SCT070,-99.99,VWS V14.01,2013-04-11 21:30:00,
2013-04-11 17:32:00,81.9,50.0,30.00,South,176,0.0,0.0,33,-99.99,,SCT070,-99.99,VWS V14.01,2013-04-11 21:32:00,
2013-04-11 17:34:00,81.7,50.6,29.97,SSW,193,0.0,0.0,34,-99.99,,SCT070,-99.99,VWS V14.01,2013-04-11 21:34:00,
2013-04-11 17:35:00,81.5,50.5,29.97,SW,230,0.0,0.0,34,-99.99,,SCT070,-99.99,VWS V14.01,2013-04-11 21:35:00,
2013-04-11 17:36:00,81.5,50.5,29.97,SW,224,0.0,0.0,34,-99.99,,SCT070,-99.99,VWS V14.01,2013-04-11 21:36:00,
2013-04-11 17:37:00,81.3,51.1,29.97,SSE,158,0.0,0.0,35,-99.99,,SCT070,-99.99,VWS V14.01,2013-04-11 21:37:00,
2013-04-11 17:40:00,81.1,50.9,29.97,SSE,158,0.0,0.0,35,-99.99,,SCT070,-99.99,VWS V14.01,2013-04-11 21:40:00,
2013-04-11 17:41:00,81.1,50.9,29.97,SW,215,0.0,0.0,35,-99.99,,SCT070,-99.99,VWS V14.01,2013-04-11 21:41:00,
2013-04-11 17:42:00,81.1,50.9,29.97,SSW,211,0.0,0.0,35,-99.99,,SCT070,-99.99,VWS V14.01,2013-04-11 21:42:00,
2013-04-11 17:44:00,81.1,50.9,29.97,SSW,197,0.0,0.0,35,-99.99,,SCT070,-99.99,VWS V14.01,2013-04-11 21:44:00,
2013-04-11 17:47:00,81.3,51.8,29.97,South,170,0.0,0.0,36,-99.99,,SCT070,-99.99,VWS V14.01,2013-04-11 21:47:00,
2013-04-11 17:49:00,81.3,51.8,29.97,SE,129,0.0,0.0,36,-99.99,,SCT070,-99.99,VWS V14.01,2013-04-11 21:49:00,
2013-04-11 17:52:00,81.3,51.1,29.97,SW,220,0.0,0.0,35,-99.99,,SCT070,-99.99,VWS V14.01,2013-04-11 21:52:00,
2013-04-11 17:53:00,81.3,51.8,29.97,South,179,0.0,0.0,36,-99.99,,SCT070,-99.99,VWS V14.01,2013-04-11 21:53:00,
2013-04-11 17:54:00,81.1,50.9,29.97,South,175,0.0,0.0,35,-99.99,,SCT070,-99.99,VWS V14.01,2013-04-11 21:54:00,
2013-04-11 17:55:00,81.1,50.9,29.97,South,185,0.0,0.0,35,-99.99,,SCT070,-99.99,VWS V14.01,2013-04-11 21:55:00,
2013-04-11 17:57:00,81.0,51.5,29.97,SSW,212,0.0,0.0,36,-99.99,,SCT070,-99.99,VWS V14.01,2013-04-11 21:57:00,
2013-04-11 17:59:00,80.8,51.4,29.97,SSE,155,7.8,10.1,36,-99.99,,FEW070,-99.99,VWS V14.01,2013-04-11 21:59:00,
2013-04-11 18:00:00,80.6,51.2,29.97,SW,225,7.8,7.8,36,-99.99,,FEW070,-99.99,VWS V14.01,2013-04-11 22:00:00,
2013-04-11 18:02:00,80.4,51.8,29.97,South,172,4.9,5.4,37,-99.99,,FEW070,-99.99,VWS V14.01,2013-04-11 22:02:00,
2013-04-11 18:04:00,80.4,52.5,29.97,SSW,210,4.5,8.3,38,-99.99,,FEW070,-99.99,VWS V14.01,2013-04-11 22:04:00,
2013-04-11 18:05:00,80.2,51.6,29.97,South,181,4.9,7.8,37,-99.99,,FEW070,-99.99,VWS V14.01,2013-04-11 22:05:00,
2013-04-11 18:07:00,80.2,52.3,29.97,South,190,5.8,6.7,38,-99.99,,FEW070,-99.99,VWS V14.01,2013-04-11 22:07:00,
2013-04-11 18:08:00,80.1,52.2,29.97,SSE,164,4.9,6.7,38,-99.99,,FEW070,-99.99,VWS V14.01,2013-04-11 22:08:00,
2013-04-11 18:10:00,80.1,52.2,29.97,SSW,196,5.4,9.6,38,-99.99,,FEW070,-99.99,VWS V14.01,2013-04-11 22:10:00,
2013-04-11 18:13:00,80.1,52.2,29.97,South,180,6.7,6.9,38,-99.99,,FEW070,-99.99,VWS V14.01,2013-04-11 22:13:00,
2013-04-11 18:14:00,80.1,52.9,29.97,SSW,212,5.8,6.9,39,-99.99,,FEW070,-99.99,VWS V14.01,2013-04-11 22:14:00,
2013-04-11 18:16:00,80.1,52.9,29.97,SSW,209,4.9,10.1,39,-99.99,,FEW070,-99.99,VWS V14.01,2013-04-11 22:16:00,
2013-04-11 18:17:00,80.1,52.9,29.97,SW,219,7.4,7.4,39,-99.99,,FEW070,-99.99,VWS V14.01,2013-04-11 22:17:00,
2013-04-11 18:20:00,80.2,53.1,29.97,SSE,154,4.0,6.9,39,-99.99,,FEW070,-99.99,VWS V14.01,2013-04-11 22:20:00,
2013-04-11 18:21:00,80.2,53.1,29.97,South,182,4.0,7.4,39,-99.99,,FEW070,-99.99,VWS V14.01,2013-04-11 22:21:00,
2013-04-11 18:24:00,80.4,53.2,29.97,South,178,3.1,3.6,39,-99.99,,FEW070,-99.99,VWS V14.01,2013-04-11 22:24:00,
2013-04-11 18:25:00,80.4,53.2,29.97,South,175,4.0,4.0,39,-99.99,,FEW070,-99.99,VWS V14.01,2013-04-11 22:25:00,
2013-04-11 18:26:00,80.6,53.4,29.97,South,176,3.6,5.4,39,-99.99,,FEW070,-99.99,VWS V14.01,2013-04-11 22:26:00,
2013-04-11 18:29:00,80.6,52.7,29.97,South,184,4.5,4.5,38,-99.99,,FEW070,-99.99,VWS V14.01,2013-04-11 22:29:00,
2013-04-11 18:31:00,80.6,53.4,29.97,SSE,164,4.9,4.9,39,-99.99,,FEW070,-99.99,VWS V14.01,2013-04-11 22:31:00,
2013-04-11 18:33:00,80.6,53.4,29.97,SSW,199,6.7,6.7,39,-99.99,,FEW070,-99.99,VWS V14.01,2013-04-11 22:33:00,
2013-04-11 18:35:00,80.4,53.2,29.97,South,169,8.3,9.2,39,-99.99,,FEW070,-99.99,VWS V14.01,2013-04-11 22:35:00,
2013-04-11 18:37:00,80.4,53.2,29.97,SSW,207,5.4,5.8,39,-99.99,,FEW070,-99.99,VWS V14.01,2013-04-11 22:37:00,
2013-04-11 18:38:00,80.2,53.1,29.97,SSW,208,3.6,4.9,39,-99.99,,FEW070,-99.99,VWS V14.01,2013-04-11 22:38:00,
2013-04-11 18:39:00,80.2,53.1,29.97,SSW,207,3.6,4.9,39,-99.99,,FEW070,-99.99,VWS V14.01,2013-04-11 22:39:00,
2013-04-11 18:40:00,80.1,53.6,29.97,SSE,160,4.0,4.9,40,-99.99,,FEW070,-99.99,VWS V14.01,2013-04-11 22:40:00,
2013-04-11 18:43:00,79.9,53.4,29.97,SW,225,4.5,4.5,40,-99.99,,FEW070,-99.99,VWS V14.01,2013-04-11 22:43:00,
2013-04-11 18:44:00,79.7,53.3,29.97,SSW,194,3.6,5.4,40,-99.99,,FEW070,-99.99,VWS V14.01,2013-04-11 22:44:00,
2013-04-11 18:45:00,79.7,53.3,29.97,SSW,194,3.6,5.4,40,-99.99,,FEW070,-99.99,VWS V14.01,2013-04-11 22:45:00,
2013-04-11 18:46:00,79.7,53.3,29.97,South,191,3.6,4.5,40,-99.99,,FEW070,-99.99,VWS V14.01,2013-04-11 22:46:00,
2013-04-11 18:49:00,79.5,53.8,29.97,SSW,198,3.6,6.3,41,-99.99,,FEW070,-99.99,VWS V14.01,2013-04-11 22:49:00,
2013-04-11 18:50:00,79.3,53.6,29.97,SSW,196,0.0,4.9,41,-99.99,,FEW070,-99.99,VWS V14.01,2013-04-11 22:50:00,
2013-04-11 18:54:00,79.2,53.5,29.97,SSW,207,6.7,9.6,41,-99.99,,FEW070,-99.99,VWS V14.01,2013-04-11 22:54:00,
2013-04-11 18:55:00,79.2,53.5,29.97,SSE,168,8.3,10.5,41,-99.99,,FEW070,-99.99,VWS V14.01,2013-04-11 22:55:00,
2013-04-11 18:59:00,79.0,53.3,29.97,SE,137,5.4,6.7,41,-99.99,,BKN070,-99.99,VWS V14.01,2013-04-11 22:59:00,
2013-04-11 19:00:00,79.0,53.3,29.97,SSW,197,6.3,6.9,41,-99.99,,BKN070,-99.99,VWS V14.01,2013-04-11 23:00:00,
2013-04-11 19:02:00,79.0,53.3,29.97,SSE,166,4.0,5.8,41,-99.99,,BKN070,-99.99,VWS V14.01,2013-04-11 23:02:00,
2013-04-11 19:04:00,79.0,53.3,29.97,SSE,155,4.5,5.4,41,-99.99,,BKN070,-99.99,VWS V14.01,2013-04-11 23:04:00,
2013-04-11 19:06:00,79.0,54.0,29.97,SW,233,4.9,5.8,42,-99.99,,BKN070,-99.99,VWS V14.01,2013-04-11 23:06:00,
2013-04-11 19:07:00,79.0,54.0,29.97,SW,222,4.9,7.8,42,-99.99,,BKN070,-99.99,VWS V14.01,2013-04-11 23:07:00,
2013-04-11 19:08:00,79.0,54.0,29.97,SSE,147,5.4,5.8,42,-99.99,,BKN070,-99.99,VWS V14.01,2013-04-11 23:08:00,
2013-04-11 19:09:00,79.0,54.0,29.97,South,186,4.9,6.7,42,-99.99,,BKN070,-99.99,VWS V14.01,2013-04-11 23:09:00,
2013-04-11 19:12:00,79.0,54.0,29.97,South,173,7.8,7.8,42,-99.99,,BKN070,-99.99,VWS V14.01,2013-04-11 23:12:00,
2013-04-11 19:13:00,79.0,54.0,29.97,South,173,4.5,7.8,42,-99.99,,BKN070,-99.99,VWS V14.01,2013-04-11 23:13:00,
2013-04-11 19:14:00,79.0,54.0,29.97,SE,129,10.1,10.1,42,-99.99,,BKN070,-99.99,VWS V14.01,2013-04-11 23:14:00,
2013-04-11 19:18:00,78.8,53.8,29.97,South,174,4.5,6.3,42,-99.99,,BKN070,-99.99,VWS V14.01,2013-04-11 23:18:00,
2013-04-11 19:20:00,78.8,53.8,29.97,SSW,195,7.4,7.4,42,-99.99,,BKN070,-99.99,VWS V14.01,2013-04-11 23:20:00,
2013-04-11 19:21:00,78.6,53.6,29.97,SSW,208,3.1,3.6,42,-99.99,,BKN070,-99.99,VWS V14.01,2013-04-11 23:21:00,
2013-04-11 19:23:00,78.6,54.3,29.97,South,188,3.6,4.9,43,-99.99,,BKN070,-99.99,VWS V14.01,2013-04-11 23:23:00,
2013-04-11 19:24:00,78.4,54.1,29.97,South,188,3.6,4.9,43,-99.99,,BKN070,-99.99,VWS V14.01,2013-04-11 23:24:00,
2013-04-11 19:26:00,78.4,54.1,29.97,SSW,205,4.0,4.5,43,-99.99,,BKN070,-99.99,VWS V14.01,2013-04-11 23:26:00,
2013-04-11 19:28:00,78.3,54.0,29.97,South,173,4.9,5.8,43,-99.99,,BKN070,-99.99,VWS V14.01,2013-04-11 23:28:00,
2013-04-11 19:29:00,78.1,54.4,29.97,SSW,204,2.7,5.4,44,-99.99,,OVC090,-99.99,VWS V14.01,2013-04-11 23:29:00,
2013-04-11 19:31:00,78.1,54.4,29.97,South,171,5.4,6.3,44,-99.99,,OVC090,-99.99,VWS V14.01,2013-04-11 23:31:00,
2013-04-11 19:32:00,78.1,54.4,29.97,South,169,5.8,5.8,44,-99.99,,OVC090,-99.99,VWS V14.01,2013-04-11 23:32:00,
2013-04-11 19:33:00,78.1,54.4,29.97,SSW,207,4.0,5.8,44,-99.99,,OVC090,-99.99,VWS V14.01,2013-04-11 23:33:00,
2013-04-11 19:34:00,77.9,54.3,29.97,South,171,6.9,6.9,44,-99.99,,OVC090,-99.99,VWS V14.01,2013-04-11 23:34:00,
2013-04-11 19:38:00,77.7,55.3,29.97,SSW,194,6.3,10.1,46,-99.99,,OVC090,-99.99,VWS V14.01,2013-04-11 23:38:00,
2013-04-11 19:39:00,77.7,56.5,29.97,SW,225,11.2,11.2,48,-99.99,,OVC090,-99.99,VWS V14.01,2013-04-11 23:39:00,
2013-04-11 19:40:00,77.7,57.1,29.97,South,174,6.3,11.2,49,-99.99,,OVC090,-99.99,VWS V14.01,2013-04-11 23:40:00,
2013-04-11 19:43:00,77.5,58.0,29.97,SSW,203,7.4,11.2,51,-99.99,,OVC090,-99.99,VWS V14.01,2013-04-11 23:43:00,
2013-04-11 19:44:00,77.5,59.1,29.97,South,171,6.7,9.2,53,-99.99,,OVC090,-99.99,VWS V14.01,2013-04-11 23:44:00,
2013-04-11 19:45:00,77.4,58.9,29.97,SSE,158,4.5,7.4,53,-99.99,,OVC090,-99.99,VWS V14.01,2013-04-11 23:45:00,
2013-04-11 19:48:00,77.2,60.8,29.97,South,186,3.1,5.8,57,-99.99,,BKN060,-99.99,VWS V14.01,2013-04-11 23:48:00,
2013-04-11 19:49:00,77.2,60.8,29.97,South,180,9.2,9.6,57,-99.99,,BKN060,-99.99,VWS V14.01,2013-04-11 23:49:00,
2013-04-11 19:52:00,75.7,61.8,29.97,South,176,7.8,10.5,62,-99.99,,BKN060,-99.99,VWS V14.01,2013-04-11 23:52:00,
2013-04-11 19:53:00,75.9,62.4,29.97,SSW,203,6.7,10.5,63,-99.99,,BKN060,-99.99,VWS V14.01,2013-04-11 23:53:00,
2013-04-11 19:54:00,75.6,62.1,29.97,South,179,8.7,12.5,63,-99.99,,BKN060,-99.99,VWS V14.01,2013-04-11 23:54:00,
2013-04-11 19:59:00,75.2,63.1,29.97,SE,124,10.1,13.0,66,-99.99,,BKN060,-99.99,VWS V14.01,2013-04-11 23:59:00,
2013-04-11 20:00:00,75.0,62.9,29.97,SSW,209,4.0,10.1,66,-99.99,,BKN060,-99.99,VWS V14.01,2013-04-12 00:00:00,
2013-04-11 20:04:00,74.7,63.4,29.97,SSE,165,6.3,6.3,68,-99.99,,BKN070,-99.99,VWS V14.01,2013-04-12 00:04:00,
2013-04-11 20:05:00,74.5,63.2,29.97,SSW,199,8.3,8.3,68,-99.99,,BKN070,-99.99,VWS V14.01,2013-04-12 00:05:00,
2013-04-11 20:10:00,74.1,62.9,29.97,SSW,202,5.8,10.1,68,-99.99,,BKN070,-99.99,VWS V14.01,2013-04-12 00:10:00,
2013-04-11 20:12:00,74.1,62.9,29.97,SSW,198,4.9,8.7,68,-99.99,,BKN070,-99.99,VWS V14.01,2013-04-12 00:12:00,
2013-04-11 20:16:00,73.8,62.5,29.97,South,181,5.8,7.8,68,-99.99,,BKN070,-99.99,VWS V14.01,2013-04-12 00:16:00,
2013-04-11 20:17:00,73.8,62.5,29.97,South,172,4.0,4.9,68,-99.99,,BKN070,-99.99,VWS V14.01,2013-04-12 00:17:00,
2013-04-11 20:18:00,73.8,62.5,29.97,SW,215,8.3,8.7,68,-99.99,,OVC120,-99.99,VWS V14.01,2013-04-12 00:18:00,
2013-04-11 20:21:00,73.6,62.4,29.97,SW,222,7.4,8.3,68,-99.99,,OVC120,-99.99,VWS V14.01,2013-04-12 00:21:00,
2013-04-11 20:22:00,73.6,62.4,29.97,South,187,2.7,4.9,68,-99.99,,OVC120,-99.99,VWS V14.01,2013-04-12 00:22:00,
2013-04-11 20:23:00,73.4,62.2,29.97,SSW,197,3.1,4.9,68,-99.99,,OVC120,-99.99,VWS V14.01,2013-04-12 00:23:00,
2013-04-11 20:26:00,73.2,62.5,29.97,SSE,153,5.8,6.3,69,-99.99,,OVC120,-99.99,VWS V14.01,2013-04-12 00:26:00,
2013-04-11 20:28:00,73.2,62.5,29.97,South,178,5.4,6.7,69,-99.99,,OVC120,-99.99,VWS V14.01,2013-04-12 00:28:00,
2013-04-11 20:29:00,73.2,62.5,29.97,SSE,162,4.9,5.4,69,-99.99,,OVC120,-99.99,VWS V14.01,2013-04-12 00:29:00,
2013-04-11 20:31:00,73.0,62.3,29.97,SSE,162,3.6,3.6,69,-99.99,,OVC120,-99.99,VWS V14.01,2013-04-12 00:31:00,
2013-04-11 20:33:00,72.9,62.5,29.97,SW,214,6.9,6.9,70,-99.99,,OVC120,-99.99,VWS V14.01,2013-04-12 00:33:00,
2013-04-11 20:34:00,72.9,62.5,29.97,South,169,5.8,9.2,70,-99.99,,OVC120,-99.99,VWS V14.01,2013-04-12 00:34:00,
2013-04-11 20:37:00,72.7,62.7,29.97,SW,219,4.0,5.4,71,-99.99,,OVC120,-99.99,VWS V14.01,2013-04-12 00:37:00,
2013-04-11 20:39:00,72.7,62.7,29.97,South,170,6.9,12.1,71,-99.99,,OVC120,-99.99,VWS V14.01,2013-04-12 00:39:00,
2013-04-11 20:41:00,72.7,62.7,29.97,SSW,199,0.0,0.0,71,-99.99,,OVC120,-99.99,VWS V14.01,2013-04-12 00:41:00,
2013-04-11 20:43:00,72.7,62.7,29.97,SSW,201,0.0,0.0,71,-99.99,,OVC120,-99.99,VWS V14.01,2013-04-12 00:43:00,
2013-04-11 20:44:00,72.5,62.6,29.97,SSE,164,0.0,0.0,71,-99.99,,OVC120,-99.99,VWS V14.01,2013-04-12 00:44:00,
2013-04-11 20:46:00,72.5,63.0,29.97,SSE,168,0.0,0.0,72,-99.99,,OVC120,-99.99,VWS V14.01,2013-04-12 00:46:00,
2013-04-11 20:48:00,72.5,63.0,30.00,South,171,0.0,0.0,72,-99.99,,OVC120,-99.99,VWS V14.01,2013-04-12 00:48:00,
2013-04-11 20:53:00,72.1,63.0,30.00,SSE,147,0.0,0.0,73,-99.99,,OVC120,-99.99,VWS V14.01,2013-04-12 00:53:00,
2013-04-11 20:55:00,72.1,63.0,30.00,SE,141,0.0,0.0,73,-99.99,,OVC120,-99.99,VWS V14.01,2013-04-12 00:55:00,
2013-04-11 21:00:00,72.1,63.4,30.00,South,191,0.0,0.0,74,-99.99,,OVC120,-99.99,VWS V14.01,2013-04-12 01:00:00,
2013-04-11 21:01:00,72.1,63.4,30.00,SSE,152,0.0,0.0,74,-99.99,,OVC120,-99.99,VWS V14.01,2013-04-12 01:01:00,
2013-04-11 21:02:00,72.0,63.2,30.00,SSE,151,0.0,0.0,74,-99.99,,OVC120,-99.99,VWS V14.01,2013-04-12 01:02:00,
2013-04-11 21:05:00,72.0,63.2,30.00,SSW,213,0.0,0.0,74,-99.99,,OVC120,-99.99,VWS V14.01,2013-04-12 01:05:00,
2013-04-11 21:06:00,72.0,63.6,30.00,SSE,155,0.0,0.0,75,-99.99,,OVC120,-99.99,VWS V14.01,2013-04-12 01:06:00,
2013-04-11 21:07:00,72.0,63.6,30.00,South,182,0.0,0.0,75,-99.99,,OVC120,-99.99,VWS V14.01,2013-04-12 01:07:00,
2013-04-11 21:08:00,72.0,63.6,30.00,SW,221,0.0,0.0,75,-99.99,,CLR,-99.99,VWS V14.01,2013-04-12 01:08:00,
2013-04-11 21:10:00,71.8,63.8,30.00,SSE,162,0.0,0.0,76,-99.99,,CLR,-99.99,VWS V14.01,2013-04-12 01:10:00,
2013-04-11 21:11:00,71.8,63.8,30.00,South,176,0.0,0.0,76,-99.99,,CLR,-99.99,VWS V14.01,2013-04-12 01:11:00,
2013-04-11 21:12:00,71.8,63.8,30.00,SSE,158,0.0,0.0,76,-99.99,,CLR,-99.99,VWS V14.01,2013-04-12 01:12:00,
2013-04-11 21:14:00,71.6,63.6,30.00,South,169,0.0,0.0,76,-99.99,,CLR,-99.99,VWS V14.01,2013-04-12 01:14:00,
2013-04-11 21:16:00,71.6,64.0,30.00,East,95,0.0,0.0,77,-99.99,,CLR,-99.99,VWS V14.01,2013-04-12 01:16:00,
2013-04-11 21:17:00,71.6,64.4,30.00,SSE,166,0.0,0.0,78,-99.99,,CLR,-99.99,VWS V14.01,2013-04-12 01:17:00,
2013-04-11 21:19:00,71.4,64.2,30.00,SSE,161,0.0,0.0,78,-99.99,,CLR,-99.99,VWS V14.01,2013-04-12 01:19:00,
2013-04-11 21:21:00,71.4,64.6,30.00,SSW,197,0.0,0.0,79,-99.99,,CLR,-99.99,VWS V14.01,2013-04-12 01:21:00,
2013-04-11 21:22:00,71.2,64.4,30.00,South,172,0.0,0.0,79,-99.99,,CLR,-99.99,VWS V14.01,2013-04-12 01:22:00,
2013-04-11 21:23:00,71.2,64.4,30.00,SSW,210,0.0,0.0,79,-99.99,,CLR,-99.99,VWS V14.01,2013-04-12 01:23:00,
2013-04-11 21:24:00,71.2,64.4,30.00,SSE,158,0.0,0.0,79,-99.99,,CLR,-99.99,VWS V14.01,2013-04-12 01:24:00,
2013-04-11 21:27:00,71.1,64.2,30.00,South,170,0.0,0.0,79,-99.99,,CLR,-99.99,VWS V14.01,2013-04-12 01:27:00,
2013-04-11 21:28:00,71.1,64.2,30.00,South,191,0.0,0.0,79,-99.99,,CLR,-99.99,VWS V14.01,2013-04-12 01:28:00,
2013-04-11 21:29:00,71.1,64.6,30.00,SSW,197,0.0,0.0,80,-99.99,,CLR,-99.99,VWS V14.01,2013-04-12 01:29:00,
2013-04-11 21:33:00,70.9,64.4,30.00,South,170,4.9,4.9,80,-99.99,,CLR,-99.99,VWS V14.01,2013-04-12 01:33:00,
2013-04-11 21:34:00,70.9,64.4,30.00,South,189,4.0,4.9,80,-99.99,,CLR,-99.99,VWS V14.01,2013-04-12 01:34:00,
2013-04-11 21:39:00,70.7,64.6,30.00,SSW,199,4.5,4.5,81,-99.99,,CLR,-99.99,VWS V14.01,2013-04-12 01:39:00,
2013-04-11 21:40:00,70.7,64.6,30.00,SE,140,4.5,4.9,81,-99.99,,CLR,-99.99,VWS V14.01,2013-04-12 01:40:00,
2013-04-11 21:41:00,70.7,64.6,30.00,South,172,3.1,5.4,81,-99.99,,CLR,-99.99,VWS V14.01,2013-04-12 01:41:00,
2013-04-11 21:45:00,70.5,64.4,30.00,SSE,164,5.4,8.7,81,-99.99,,CLR,-99.99,VWS V14.01,2013-04-12 01:45:00,
2013-04-11 21:46:00,70.5,64.4,30.00,SSE,157,4.0,4.0,81,-99.99,,CLR,-99.99,VWS V14.01,2013-04-12 01:46:00,
2013-04-11 21:47:00,70.5,64.4,30.00,SSW,203,3.6,3.6,81,-99.99,,CLR,-99.99,VWS V14.01,2013-04-12 01:47:00,
2013-04-11 21:50:00,70.5,64.4,30.00,SSE,159,0.0,5.4,81,-99.99,,CLR,-99.99,VWS V14.01,2013-04-12 01:50:00,
2013-04-11 21:52:00,70.5,64.4,30.00,SSE,156,5.4,7.4,81,-99.99,,CLR,-99.99,VWS V14.01,2013-04-12 01:52:00,
2013-04-11 21:53:00,70.5,64.4,30.00,South,177,4.9,6.7,81,-99.99,,CLR,-99.99,VWS V14.01,2013-04-12 01:53:00,
2013-04-11 21:55:00,70.5,64.4,30.00,South,174,4.9,4.9,81,-99.99,,CLR,-99.99,VWS V14.01,2013-04-12 01:55:00,
2013-04-11 21:58:00,70.5,64.4,30.00,South,187,5.8,7.8,81,-99.99,,CLR,-99.99,VWS V14.01,2013-04-12 01:58:00,
2013-04-11 21:59:00,70.5,64.4,30.00,SW,214,5.4,8.3,81,-99.99,,CLR,-99.99,VWS V14.01,2013-04-12 01:59:00,
2013-04-11 22:00:00,70.5,64.4,30.00,SSE,165,4.5,5.4,81,-99.99,,CLR,-99.99,VWS V14.01,2013-04-12 02:00:00,
2013-04-11 22:03:00,70.5,64.4,30.00,South,177,0.0,4.9,81,-99.99,,CLR,-99.99,VWS V14.01,2013-04-12 02:03:00,
2013-04-11 22:04:00,70.3,64.2,30.00,South,183,0.0,0.0,81,-99.99,,CLR,-99.99,VWS V14.01,2013-04-12 02:04:00,
2013-04-11 22:05:00,70.3,64.2,30.00,SSE,161,0.0,0.0,81,-99.99,,CLR,-99.99,VWS V14.01,2013-04-12 02:05:00,
2013-04-11 22:08:00,70.3,64.2,30.00,SSE,165,0.0,0.0,81,-99.99,,CLR,-99.99,VWS V14.01,2013-04-12 02:08:00,
2013-04-11 22:09:00,70.3,64.2,30.00,SSW,213,0.0,0.0,81,-99.99,,CLR,-99.99,VWS V14.01,2013-04-12 02:09:00,
2013-04-11 22:12:00,70.3,64.2,30.00,South,173,0.0,0.0,81,-99.99,,CLR,-99.99,VWS V14.01,2013-04-12 02:12:00,
2013-04-11 22:14:00,70.2,64.1,30.00,South,175,0.0,0.0,81,-99.99,,CLR,-99.99,VWS V14.01,2013-04-12 02:14:00,
2013-04-11 22:15:00,70.2,64.1,30.00,SSE,166,0.0,0.0,81,-99.99,,CLR,-99.99,VWS V14.01,2013-04-12 02:15:00,
2013-04-11 22:16:00,70.2,64.1,30.00,SSW,211,0.0,0.0,81,-99.99,,CLR,-99.99,VWS V14.01,2013-04-12 02:16:00,
2013-04-11 22:17:00,70.2,63.7,30.00,South,170,0.0,0.0,80,-99.99,,CLR,-99.99,VWS V14.01,2013-04-12 02:17:00,
2013-04-11 22:20:00,70.2,63.7,30.00,SW,220,0.0,0.0,80,-99.99,,CLR,-99.99,VWS V14.01,2013-04-12 02:20:00,
2013-04-11 22:22:00,70.2,63.7,30.00,South,181,0.0,0.0,80,-99.99,,CLR,-99.99,VWS V14.01,2013-04-12 02:22:00,
2013-04-11 22:23:00,70.2,63.7,30.00,South,182,0.0,0.0,80,-99.99,,CLR,-99.99,VWS V14.01,2013-04-12 02:23:00,
2013-04-11 22:24:00,70.0,63.5,30.00,SSW,201,0.0,0.0,80,-99.99,,CLR,-99.99,VWS V14.01,2013-04-12 02:24:00,
2013-04-11 22:26:00,70.0,63.5,30.00,South,173,0.0,0.0,80,-99.99,,CLR,-99.99,VWS V14.01,2013-04-12 02:26:00,
2013-04-11 22:28:00,70.0,63.5,30.00,SSW,210,0.0,0.0,80,-99.99,,CLR,-99.99,VWS V14.01,2013-04-12 02:28:00,
2013-04-11 22:32:00,69.8,63.4,30.00,South,188,0.0,0.0,80,-99.99,,CLR,-99.99,VWS V14.01,2013-04-12 02:32:00,
2013-04-11 22:34:00,69.8,63.4,30.00,SSE,165,0.0,0.0,80,-99.99,,CLR,-99.99,VWS V14.01,2013-04-12 02:34:00,
2013-04-11 22:37:00,69.8,63.4,30.00,SSE,167,0.0,0.0,80,-99.99,,CLR,-99.99,VWS V14.01,2013-04-12 02:37:00,
2013-04-11 22:39:00,69.8,63.4,30.00,SSE,167,0.0,0.0,80,-99.99,,CLR,-99.99,VWS V14.01,2013-04-12 02:39:00,
2013-04-11 22:40:00,69.8,63.4,30.00,SSE,157,0.0,0.0,80,-99.99,,CLR,-99.99,VWS V14.01,2013-04-12 02:40:00,
2013-04-11 22:42:00,69.8,63.4,30.00,South,182,0.0,0.0,80,-99.99,,CLR,-99.99,VWS V14.01,2013-04-12 02:42:00,
2013-04-11 22:45:00,69.6,63.2,30.00,SW,215,0.0,0.0,80,-99.99,,CLR,-99.99,VWS V14.01,2013-04-12 02:45:00,
2013-04-11 22:46:00,69.4,62.3,30.00,SSE,163,0.0,0.0,78,-99.99,,CLR,-99.99,VWS V14.01,2013-04-12 02:46:00,
2013-04-11 22:47:00,69.3,62.1,30.00,SW,216,0.0,0.0,78,-99.99,,CLR,-99.99,VWS V14.01,2013-04-12 02:47:00,
2013-04-11 22:51:00,69.6,62.5,30.00,SSE,163,0.0,0.0,78,-99.99,,CLR,-99.99,VWS V14.01,2013-04-12 02:51:00,
2013-04-11 22:52:00,69.8,62.6,30.00,South,187,0.0,0.0,78,-99.99,,CLR,-99.99,VWS V14.01,2013-04-12 02:52:00,
2013-04-11 22:53:00,69.6,62.5,30.00,SW,226,0.0,0.0,78,-99.99,,CLR,-99.99,VWS V14.01,2013-04-12 02:53:00,
2013-04-11 22:57:00,69.8,63.4,30.00,SW,216,0.0,0.0,80,-99.99,,CLR,-99.99,VWS V14.01,2013-04-12 02:57:00,
2013-04-11 22:59:00,69.8,63.4,30.00,South,177,0.0,0.0,80,-99.99,,BKN100,-99.99,VWS V14.01,2013-04-12 02:59:00,
2013-04-11 23:02:00,69.8,63.4,30.00,South,172,0.0,0.0,80,-99.99,,BKN100,-99.99,VWS V14.01,2013-04-12 03:02:00,
2013-04-11 23:10:00,69.8,63.7,30.00,SSW,199,0.0,0.0,81,-99.99,,BKN100,-99.99,VWS V14.01,2013-04-12 03:10:00,
2013-04-11 23:13:00,69.8,63.7,30.00,South,188,0.0,0.0,81,-99.99,,BKN100,-99.99,VWS V14.01,2013-04-12 03:13:00,
2013-04-11 23:14:00,69.6,63.2,30.00,South,182,0.0,3.1,80,-99.99,,OVC100,-99.99,VWS V14.01,2013-04-12 03:14:00,
2013-04-11 23:16:00,69.8,63.7,30.00,SSE,163,0.0,0.0,81,-99.99,,OVC100,-99.99,VWS V14.01,2013-04-12 03:16:00,
2013-04-11 23:19:00,69.8,64.1,30.00,South,174,0.0,0.0,82,-99.99,,OVC100,-99.99,VWS V14.01,2013-04-12 03:19:00,
2013-04-11 23:20:00,69.8,64.1,30.00,SSW,213,0.0,0.0,82,-99.99,,OVC100,-99.99,VWS V14.01,2013-04-12 03:20:00,
2013-04-11 23:23:00,69.8,64.1,30.00,South,188,0.0,0.0,82,-99.99,,OVC100,-99.99,VWS V14.01,2013-04-12 03:23:00,
2013-04-11 23:24:00,69.8,64.1,30.00,South,176,0.0,0.0,82,-99.99,,OVC100,-99.99,VWS V14.01,2013-04-12 03:24:00,
2013-04-11 23:26:00,69.6,63.9,30.00,SSE,166,0.0,0.0,82,-99.99,,OVC100,-99.99,VWS V14.01,2013-04-12 03:26:00,
2013-04-11 23:27:00,69.6,63.9,30.00,SW,225,0.0,0.0,82,-99.99,,OVC100,-99.99,VWS V14.01,2013-04-12 03:27:00,
2013-04-11 23:29:00,69.6,64.2,30.00,SSE,155,0.0,0.0,83,-99.99,,OVC100,-99.99,VWS V14.01,2013-04-12 03:29:00,
2013-04-11 23:30:00,69.8,64.4,30.00,SSW,202,0.0,0.0,83,-99.99,,OVC100,-99.99,VWS V14.01,2013-04-12 03:30:00,
2013-04-11 23:31:00,69.8,64.4,30.00,South,174,0.0,0.0,83,-99.99,,OVC100,-99.99,VWS V14.01,2013-04-12 03:31:00,
2013-04-11 23:34:00,69.8,64.4,30.00,SW,217,0.0,0.0,83,-99.99,,OVC100,-99.99,VWS V14.01,2013-04-12 03:34:00,
2013-04-11 23:35:00,69.8,64.4,30.00,SW,217,0.0,0.0,83,-99.99,,OVC100,-99.99,VWS V14.01,2013-04-12 03:35:00,
2013-04-11 23:36:00,69.8,64.4,30.00,South,172,0.0,0.0,83,-99.99,,OVC100,-99.99,VWS V14.01,2013-04-12 03:36:00,
2013-04-11 23:42:00,69.8,64.8,30.00,SW,225,0.0,0.0,84,-99.99,,OVC100,-99.99,VWS V14.01,2013-04-12 03:42:00,
2013-04-11 23:43:00,69.8,64.8,30.00,SSW,199,0.0,0.0,84,-99.99,,OVC100,-99.99,VWS V14.01,2013-04-12 03:43:00,
2013-04-11 23:52:00,69.8,64.8,30.00,SSE,150,0.0,0.0,84,-99.99,,OVC100,-99.99,VWS V14.01,2013-04-12 03:52:00,
2013-04-11 23:53:00,69.8,64.8,30.00,South,175,0.0,0.0,84,-99.99,,OVC100,-99.99,VWS V14.01,2013-04-12 03:53:00,
2013-04-11 23:54:00,69.8,64.8,30.00,SSE,153,0.0,0.0,84,-99.99,,OVC100,-99.99,VWS V14.01,2013-04-12 03:54:00,